Time,TemperatureF,DewpointF,PressureIn,WindDirection,WindDirectionDegrees,WindSpeedMPH,WindSpeedGustMPH,Humidity,HourlyPrecipIn,Conditions,Clouds,dailyrainin,SoftwareType,DateUTC
2013-03-31 00:02:00,63.7,62.2,30.06,NNE,22,0.0,0.0,95,0.00,,---,0.00,VWS V14.01,2013-03-30 22:02:00,
2013-03-31 00:05:00,63.5,62.0,30.06,East,90,0.0,3.1,95,0.00,,---,0.00,VWS V14.01,2013-03-30 22:05:00,
2013-03-31 00:08:00,63.5,62.0,30.06,ENE,68,0.0,0.0,95,0.00,,---,0.00,VWS V14.01,2013-03-30 22:08:00,
2013-03-31 00:09:00,63.7,62.5,30.06,ESE,112,0.0,0.0,96,0.00,,---,0.00,VWS V14.01,2013-03-30 22:09:00,
2013-03-31 00:13:00,63.7,62.5,30.06,ENE,68,0.0,0.0,96,0.00,,---,0.00,VWS V14.01,2013-03-30 22:13:00,
2013-03-31 00:14:00,63.7,62.5,30.06,ESE,112,0.0,0.0,96,0.00,,---,0.00,VWS V14.01,2013-03-30 22:14:00,
2013-03-31 00:15:00,63.7,62.5,30.06,East,90,0.0,0.0,96,0.00,,---,0.00,VWS V14.01,2013-03-30 22:15:00,
2013-03-31 00:20:00,63.7,62.8,30.06,East,90,0.0,0.0,97,0.00,,---,0.00,VWS V14.01,2013-03-30 22:20:00,
2013-03-31 00:21:00,63.7,62.8,30.06,East,90,0.0,0.0,97,0.00,,---,0.00,VWS V14.01,2013-03-30 22:21:00,
2013-03-31 00:26:00,63.5,62.3,30.06,ENE,68,0.0,0.0,96,0.00,,---,0.00,VWS V14.01,2013-03-30 22:26:00,
2013-03-31 00:27:00,63.5,62.3,30.06,ENE,68,0.0,0.0,96,0.00,,---,0.00,VWS V14.01,2013-03-30 22:27:00,
2013-03-31 00:33:00,63.5,62.3,30.06,ENE,68,0.0,0.0,96,0.00,,---,0.00,VWS V14.01,2013-03-30 22:33:00,
2013-03-31 00:34:00,63.5,62.3,30.06,East,90,0.0,0.0,96,0.00,,---,0.00,VWS V14.01,2013-03-30 22:34:00,
2013-03-31 00:36:00,63.5,62.0,30.06,ESE,112,0.0,0.0,95,0.00,,---,0.00,VWS V14.01,2013-03-30 22:36:00,
2013-03-31 00:38:00,63.5,62.0,30.06,ESE,112,0.0,0.0,95,0.00,,---,0.00,VWS V14.01,2013-03-30 22:38:00,
2013-03-31 00:39:00,63.5,62.0,30.06,East,90,0.0,0.0,95,0.00,,---,0.00,VWS V14.01,2013-03-30 22:39:00,
2013-03-31 00:41:00,63.5,62.0,30.06,ESE,112,0.0,0.0,95,0.00,,---,0.00,VWS V14.01,2013-03-30 22:41:00,
2013-03-31 00:42:00,63.5,62.0,30.06,ENE,68,0.0,0.0,95,0.00,,---,0.00,VWS V14.01,2013-03-30 22:42:00,
2013-03-31 00:43:00,63.5,62.0,30.06,ESE,112,0.0,0.0,95,0.00,,---,0.00,VWS V14.01,2013-03-30 22:43:00,
2013-03-31 00:44:00,63.5,62.0,30.06,ESE,112,0.0,0.0,95,0.00,,---,0.00,VWS V14.01,2013-03-30 22:44:00,
2013-03-31 00:50:00,63.5,62.0,30.06,ENE,68,0.0,0.0,95,0.00,,---,0.00,VWS V14.01,2013-03-30 22:50:00,
2013-03-31 00:52:00,63.3,61.6,30.06,NE,45,0.0,0.0,94,0.00,,---,0.00,VWS V14.01,2013-03-30 22:52:00,
2013-03-31 00:55:00,63.3,61.6,30.06,NNE,22,0.0,0.0,94,0.00,,---,0.00,VWS V14.01,2013-03-30 22:55:00,
2013-03-31 00:58:00,63.3,61.6,30.03,ESE,112,0.0,0.0,94,0.00,,---,0.00,VWS V14.01,2013-03-30 22:58:00,
2013-03-31 00:59:00,63.3,61.6,30.03,ESE,112,0.0,0.0,94,0.00,,---,0.00,VWS V14.01,2013-03-30 22:59:00,
2013-03-31 01:00:00,63.5,61.8,30.03,East,90,0.0,0.0,94,0.00,,---,0.00,VWS V14.01,2013-03-30 23:00:00,
2013-03-31 01:04:00,63.5,61.8,30.03,ESE,112,0.0,0.0,94,0.00,,---,0.00,VWS V14.01,2013-03-30 23:04:00,
2013-03-31 01:06:00,63.5,61.8,30.03,ESE,112,0.0,0.0,94,0.00,,---,0.00,VWS V14.01,2013-03-30 23:06:00,
2013-03-31 01:08:00,63.5,62.0,30.03,ENE,68,0.0,0.0,95,0.00,,---,0.00,VWS V14.01,2013-03-30 23:08:00,
2013-03-31 01:10:00,63.7,62.2,30.03,ENE,68,0.0,0.0,95,0.00,,---,0.00,VWS V14.01,2013-03-30 23:10:00,
2013-03-31 01:11:00,63.7,62.2,30.06,East,90,0.0,0.0,95,0.00,,---,0.00,VWS V14.01,2013-03-30 23:11:00,
2013-03-31 01:16:00,63.7,62.5,30.06,ESE,112,0.0,0.0,96,0.00,,---,0.00,VWS V14.01,2013-03-30 23:16:00,
2013-03-31 01:17:00,63.7,62.5,30.06,ENE,68,0.0,0.0,96,0.00,,---,0.00,VWS V14.01,2013-03-30 23:17:00,
2013-03-31 01:19:00,63.5,62.3,30.06,ENE,68,0.0,0.0,96,0.00,,---,0.00,VWS V14.01,2013-03-30 23:19:00,
2013-03-31 01:20:00,63.5,62.3,30.06,North,0,0.0,0.0,96,0.00,,---,0.00,VWS V14.01,2013-03-30 23:20:00,
2013-03-31 01:24:00,63.5,62.0,30.06,ESE,112,0.0,0.0,95,0.00,,---,0.00,VWS V14.01,2013-03-30 23:24:00,
2013-03-31 01:26:00,63.7,62.2,30.06,ESE,112,0.0,0.0,95,0.00,,---,0.00,VWS V14.01,2013-03-30 23:26:00,
2013-03-31 01:30:00,63.5,62.3,30.03,East,90,0.0,0.0,96,0.00,,---,0.00,VWS V14.01,2013-03-30 23:30:00,
2013-03-31 01:31:00,63.7,62.5,30.03,ESE,112,0.0,0.0,96,0.00,,---,0.00,VWS V14.01,2013-03-30 23:31:00,
2013-03-31 01:32:00,63.7,62.5,30.03,ESE,112,0.0,0.0,96,0.00,,---,0.00,VWS V14.01,2013-03-30 23:32:00,
2013-03-31 01:35:00,63.7,62.5,30.03,ENE,68,0.0,0.0,96,0.00,,---,0.00,VWS V14.01,2013-03-30 23:35:00,
2013-03-31 01:36:00,63.7,62.5,30.03,ENE,68,0.0,0.0,96,0.00,,---,0.00,VWS V14.01,2013-03-30 23:36:00,
2013-03-31 01:39:00,63.7,62.5,30.03,ESE,112,0.0,0.0,96,0.00,,---,0.00,VWS V14.01,2013-03-30 23:39:00,
2013-03-31 01:41:00,63.9,62.7,30.03,ESE,112,0.0,0.0,96,0.00,,---,0.00,VWS V14.01,2013-03-30 23:41:00,
2013-03-31 01:44:00,63.9,63.0,30.03,ESE,112,0.0,0.0,97,0.00,,---,0.00,VWS V14.01,2013-03-30 23:44:00,
2013-03-31 01:46:00,63.9,63.0,30.03,ENE,68,0.0,0.0,97,0.00,,---,0.00,VWS V14.01,2013-03-30 23:46:00,
2013-03-31 01:50:00,63.9,63.0,30.03,ESE,112,0.0,0.0,97,0.00,,---,0.00,VWS V14.01,2013-03-30 23:50:00,
2013-03-31 01:55:00,63.9,63.0,30.03,East,90,0.0,0.0,97,0.00,,---,0.00,VWS V14.01,2013-03-30 23:55:00,
2013-03-31 01:56:00,63.9,63.0,30.00,ESE,112,0.0,0.0,97,0.00,,---,0.00,VWS V14.01,2013-03-30 23:56:00,
2013-03-31 01:57:00,63.9,63.0,30.00,East,90,0.0,0.0,97,0.00,,---,0.00,VWS V14.01,2013-03-30 23:57:00,
2013-03-31 01:58:00,63.9,63.0,30.00,East,90,0.0,0.0,97,0.00,,---,0.00,VWS V14.01,2013-03-30 23:58:00,
2013-03-31 02:02:00,64.0,63.2,30.00,ENE,68,0.0,0.0,97,0.00,,---,0.00,VWS V14.01,2013-03-31 00:02:00,
2013-03-31 02:03:00,64.0,63.5,30.00,ESE,112,0.0,0.0,98,0.00,,---,0.00,VWS V14.01,2013-03-31 00:03:00,
2013-03-31 02:06:00,64.0,63.5,30.00,ESE,112,0.0,0.0,98,0.00,,---,0.00,VWS V14.01,2013-03-31 00:06:00,
2013-03-31 02:08:00,63.9,63.0,30.00,ESE,112,0.0,0.0,97,0.00,,---,0.00,VWS V14.01,2013-03-31 00:08:00,
2013-03-31 02:11:00,64.0,63.2,30.03,ESE,112,0.0,0.0,97,0.00,,---,0.00,VWS V14.01,2013-03-31 00:11:00,
2013-03-31 02:13:00,64.2,63.7,30.03,ENE,68,0.0,0.0,98,0.00,,---,0.00,VWS V14.01,2013-03-31 00:13:00,
2013-03-31 02:16:00,64.2,63.7,30.03,ESE,112,0.0,0.0,98,0.00,,---,0.00,VWS V14.01,2013-03-31 00:16:00,
2013-03-31 02:20:00,64.2,63.7,30.03,ESE,112,0.0,0.0,98,0.00,,---,0.00,VWS V14.01,2013-03-31 00:20:00,
2013-03-31 02:21:00,64.2,63.7,30.03,ESE,112,0.0,0.0,98,0.00,,---,0.00,VWS V14.01,2013-03-31 00:21:00,
2013-03-31 02:22:00,64.2,63.7,30.03,East,90,0.0,0.0,98,0.00,,---,0.00,VWS V14.01,2013-03-31 00:22:00,
2013-03-31 02:26:00,64.2,63.7,30.00,ESE,112,0.0,0.0,98,0.00,,---,0.00,VWS V14.01,2013-03-31 00:26:00,
2013-03-31 02:28:00,64.2,63.7,30.00,ENE,68,0.0,0.0,98,0.00,,---,0.00,VWS V14.01,2013-03-31 00:28:00,
2013-03-31 02:29:00,64.2,63.7,30.00,ESE,112,0.0,0.0,98,0.00,,---,0.00,VWS V14.01,2013-03-31 00:29:00,
2013-03-31 02:33:00,64.2,63.7,30.00,East,90,0.0,0.0,98,0.00,,---,0.00,VWS V14.01,2013-03-31 00:33:00,
2013-03-31 02:34:00,64.2,63.7,30.00,ESE,112,0.0,0.0,98,0.00,,---,0.00,VWS V14.01,2013-03-31 00:34:00,
2013-03-31 02:35:00,64.2,63.7,30.00,ESE,112,0.0,0.0,98,0.00,,---,0.00,VWS V14.01,2013-03-31 00:35:00,
2013-03-31 02:39:00,64.2,63.7,30.00,ESE,112,0.0,0.0,98,0.00,,---,0.00,VWS V14.01,2013-03-31 00:39:00,
2013-03-31 02:40:00,64.2,63.7,30.00,ESE,112,0.0,0.0,98,0.00,,---,0.00,VWS V14.01,2013-03-31 00:40:00,
2013-03-31 02:42:00,64.4,63.8,30.00,ESE,112,0.0,0.0,98,0.00,,---,0.00,VWS V14.01,2013-03-31 00:42:00,
2013-03-31 02:47:00,64.4,63.8,30.00,East,90,0.0,0.0,98,0.00,,---,0.00,VWS V14.01,2013-03-31 00:47:00,
2013-03-31 02:48:00,64.4,63.8,30.00,ENE,68,0.0,0.0,98,0.00,,---,0.00,VWS V14.01,2013-03-31 00:48:00,
2013-03-31 02:51:00,64.4,63.8,30.00,ESE,112,0.0,0.0,98,0.00,,---,0.00,VWS V14.01,2013-03-31 00:51:00,
2013-03-31 02:53:00,64.4,63.8,30.00,ENE,68,0.0,0.0,98,0.00,,---,0.00,VWS V14.01,2013-03-31 00:53:00,
2013-03-31 02:55:00,64.4,63.8,30.00,ESE,112,0.0,0.0,98,0.00,,---,0.00,VWS V14.01,2013-03-31 00:55:00,
2013-03-31 02:58:00,64.4,63.8,30.00,East,90,0.0,0.0,98,0.00,,---,0.00,VWS V14.01,2013-03-31 00:58:00,
2013-03-31 03:01:00,64.4,63.8,30.00,ESE,112,0.0,0.0,98,0.00,,---,0.00,VWS V14.01,2013-03-31 01:01:00,
2013-03-31 03:05:00,64.4,63.8,30.00,East,90,0.0,0.0,98,0.00,,---,0.00,VWS V14.01,2013-03-31 01:05:00,
2013-03-31 03:06:00,64.4,63.8,30.00,East,90,0.0,0.0,98,0.00,,---,0.00,VWS V14.01,2013-03-31 01:06:00,
2013-03-31 03:10:00,64.4,63.8,30.00,ESE,112,0.0,0.0,98,0.00,,---,0.00,VWS V14.01,2013-03-31 01:10:00,
2013-03-31 03:11:00,64.4,63.8,30.00,SE,135,0.0,0.0,98,0.00,,---,0.00,VWS V14.01,2013-03-31 01:11:00,
2013-03-31 03:12:00,64.4,63.8,30.00,ESE,112,0.0,0.0,98,0.00,,---,0.00,VWS V14.01,2013-03-31 01:12:00,
2013-03-31 03:15:00,64.4,63.8,30.00,ESE,112,0.0,0.0,98,0.00,,---,0.00,VWS V14.01,2013-03-31 01:15:00,
2013-03-31 03:16:00,64.4,63.8,30.00,ESE,112,0.0,0.0,98,0.00,,---,0.00,VWS V14.01,2013-03-31 01:16:00,
2013-03-31 03:18:00,64.4,63.8,30.00,East,90,0.0,0.0,98,0.00,,---,0.00,VWS V14.01,2013-03-31 01:18:00,
2013-03-31 03:19:00,64.4,63.8,30.00,NE,45,0.0,0.0,98,0.00,,---,0.00,VWS V14.01,2013-03-31 01:19:00,
2013-03-31 03:23:00,64.4,63.8,30.00,ENE,68,0.0,0.0,98,0.00,,---,0.00,VWS V14.01,2013-03-31 01:23:00,
2013-03-31 03:26:00,64.4,63.8,30.00,ENE,68,0.0,0.0,98,0.00,,---,0.00,VWS V14.01,2013-03-31 01:26:00,
2013-03-31 03:29:00,64.6,64.0,29.97,ESE,112,0.0,0.0,98,0.00,,---,0.00,VWS V14.01,2013-03-31 01:29:00,
2013-03-31 03:31:00,64.6,64.0,29.97,East,90,0.0,0.0,98,0.00,,---,0.00,VWS V14.01,2013-03-31 01:31:00,
2013-03-31 03:32:00,64.6,64.0,29.97,ESE,112,0.0,0.0,98,0.00,,---,0.00,VWS V14.01,2013-03-31 01:32:00,
2013-03-31 03:36:00,64.6,64.0,29.97,ESE,112,0.0,0.0,98,0.00,,---,0.00,VWS V14.01,2013-03-31 01:36:00,
2013-03-31 03:37:00,64.8,64.2,29.97,ESE,112,0.0,0.0,98,0.00,,---,0.00,VWS V14.01,2013-03-31 01:37:00,
2013-03-31 03:38:00,64.6,64.0,29.97,ESE,112,0.0,0.0,98,0.00,,---,0.00,VWS V14.01,2013-03-31 01:38:00,
2013-03-31 03:43:00,64.8,64.2,29.97,East,90,0.0,0.0,98,0.00,,---,0.00,VWS V14.01,2013-03-31 01:43:00,
2013-03-31 03:45:00,64.8,64.2,29.97,ENE,68,0.0,0.0,98,0.00,,---,0.00,VWS V14.01,2013-03-31 01:45:00,
2013-03-31 03:49:00,64.8,64.2,29.97,ENE,68,0.0,0.0,98,0.00,,---,0.00,VWS V14.01,2013-03-31 01:49:00,
2013-03-31 03:50:00,64.8,64.2,29.97,ESE,112,0.0,0.0,98,0.00,,---,0.00,VWS V14.01,2013-03-31 01:50:00,
2013-03-31 03:53:00,64.8,64.2,29.97,East,90,0.0,0.0,98,0.00,,---,0.00,VWS V14.01,2013-03-31 01:53:00,
2013-03-31 03:54:00,64.8,64.2,29.97,East,90,0.0,0.0,98,0.00,,---,0.00,VWS V14.01,2013-03-31 01:54:00,
2013-03-31 03:59:00,64.8,64.2,29.97,ESE,112,0.0,0.0,98,0.00,,---,0.00,VWS V14.01,2013-03-31 01:59:00,
2013-03-31 04:01:00,64.8,64.2,29.97,East,90,0.0,0.0,98,0.00,,---,0.00,VWS V14.01,2013-03-31 02:01:00,
2013-03-31 04:04:00,64.8,64.2,29.97,SE,135,0.0,0.0,98,0.00,,---,0.00,VWS V14.01,2013-03-31 02:04:00,
2013-03-31 04:05:00,64.8,64.2,29.97,East,90,0.0,0.0,98,0.00,,---,0.00,VWS V14.01,2013-03-31 02:05:00,
2013-03-31 04:06:00,64.8,64.2,29.97,East,90,0.0,0.0,98,0.00,,---,0.00,VWS V14.01,2013-03-31 02:06:00,
2013-03-31 04:10:00,64.8,64.2,29.97,East,90,4.9,4.9,98,0.00,,---,0.00,VWS V14.01,2013-03-31 02:10:00,
2013-03-31 04:11:00,64.9,64.4,29.97,ESE,112,0.0,7.6,98,0.00,,---,0.00,VWS V14.01,2013-03-31 02:11:00,
2013-03-31 04:12:00,64.9,64.4,29.97,ESE,112,0.0,4.5,98,0.00,,---,0.00,VWS V14.01,2013-03-31 02:12:00,
2013-03-31 04:14:00,64.9,64.4,29.97,East,90,4.3,8.1,98,0.00,,---,0.00,VWS V14.01,2013-03-31 02:14:00,
2013-03-31 04:17:00,64.9,64.4,29.97,ENE,68,0.0,4.9,98,0.00,,---,0.00,VWS V14.01,2013-03-31 02:17:00,
2013-03-31 04:18:00,64.9,64.4,29.97,SE,135,0.0,0.0,98,0.00,,---,0.00,VWS V14.01,2013-03-31 02:18:00,
2013-03-31 04:20:00,64.9,64.4,29.97,ESE,112,0.0,0.0,98,0.00,,---,0.00,VWS V14.01,2013-03-31 02:20:00,
2013-03-31 04:22:00,64.9,64.4,29.97,SSE,158,0.0,0.0,98,0.00,,---,0.00,VWS V14.01,2013-03-31 02:22:00,
2013-03-31 04:25:00,64.9,64.4,29.97,ESE,112,0.0,0.0,98,0.00,,---,0.00,VWS V14.01,2013-03-31 02:25:00,
2013-03-31 04:26:00,64.9,64.4,29.97,East,90,0.0,0.0,98,0.00,,---,0.00,VWS V14.01,2013-03-31 02:26:00,
2013-03-31 04:28:00,64.9,64.4,29.97,ESE,112,0.0,0.0,98,0.00,,---,0.00,VWS V14.01,2013-03-31 02:28:00,
2013-03-31 04:31:00,64.9,64.4,29.97,East,90,0.0,0.0,98,0.00,,---,0.00,VWS V14.01,2013-03-31 02:31:00,
2013-03-31 04:32:00,64.9,64.4,29.97,East,90,0.0,6.5,98,0.00,,---,0.00,VWS V14.01,2013-03-31 02:32:00,
2013-03-31 04:34:00,64.9,64.4,29.97,ESE,112,0.0,0.0,98,0.00,,---,0.00,VWS V14.01,2013-03-31 02:34:00,
2013-03-31 04:39:00,64.9,64.4,29.97,East,90,0.0,0.0,98,0.00,,---,0.00,VWS V14.01,2013-03-31 02:39:00,
2013-03-31 04:40:00,64.9,64.4,29.97,ESE,112,0.0,0.0,98,0.00,,---,0.00,VWS V14.01,2013-03-31 02:40:00,
2013-03-31 04:41:00,64.9,64.4,29.97,East,90,0.0,0.0,98,0.00,,---,0.00,VWS V14.01,2013-03-31 02:41:00,
2013-03-31 04:42:00,64.9,64.4,29.97,ENE,68,0.0,0.0,98,0.00,,---,0.00,VWS V14.01,2013-03-31 02:42:00,
2013-03-31 04:45:00,64.9,64.4,29.97,ESE,112,0.0,0.0,98,0.00,,---,0.00,VWS V14.01,2013-03-31 02:45:00,
2013-03-31 04:46:00,64.9,64.4,29.97,NNE,22,0.0,0.0,98,0.00,,---,0.00,VWS V14.01,2013-03-31 02:46:00,
2013-03-31 04:51:00,64.9,64.4,29.97,ENE,68,0.0,6.9,98,0.00,,---,0.00,VWS V14.01,2013-03-31 02:51:00,
2013-03-31 04:54:00,64.9,64.4,29.97,ESE,112,0.0,5.6,98,0.00,,---,0.00,VWS V14.01,2013-03-31 02:54:00,
2013-03-31 04:59:00,64.9,64.4,29.97,SE,135,0.0,0.0,98,0.00,,---,0.00,VWS V14.01,2013-03-31 02:59:00,
2013-03-31 05:00:00,64.9,64.4,29.97,SE,135,0.0,0.0,98,0.00,,---,0.00,VWS V14.01,2013-03-31 03:00:00,
2013-03-31 05:04:00,64.9,64.4,29.97,ENE,68,0.0,5.4,98,0.00,,---,0.00,VWS V14.01,2013-03-31 03:04:00,
2013-03-31 05:06:00,64.9,64.4,29.97,ESE,112,0.0,3.1,98,0.00,,---,0.00,VWS V14.01,2013-03-31 03:06:00,
2013-03-31 05:07:00,64.9,64.4,29.97,ESE,112,0.0,2.2,98,0.00,,---,0.00,VWS V14.01,2013-03-31 03:07:00,
2013-03-31 05:09:00,64.9,64.4,29.97,ESE,112,0.0,0.0,98,0.00,,---,0.00,VWS V14.01,2013-03-31 03:09:00,
2013-03-31 05:11:00,64.9,64.4,29.97,ESE,112,0.0,0.0,98,0.00,,---,0.00,VWS V14.01,2013-03-31 03:11:00,
2013-03-31 05:12:00,64.9,64.4,29.97,East,90,0.0,0.0,98,0.00,,---,0.00,VWS V14.01,2013-03-31 03:12:00,
2013-03-31 05:17:00,64.9,64.4,29.97,ESE,112,2.9,3.8,98,0.00,,---,0.00,VWS V14.01,2013-03-31 03:17:00,
2013-03-31 05:22:00,64.9,64.4,29.97,ESE,112,0.0,0.0,98,0.00,,---,0.00,VWS V14.01,2013-03-31 03:22:00,
2013-03-31 05:23:00,64.9,64.4,29.97,East,90,0.0,0.9,98,0.00,,---,0.00,VWS V14.01,2013-03-31 03:23:00,
2013-03-31 05:24:00,64.9,64.4,29.97,East,90,0.0,4.0,98,0.00,,---,0.00,VWS V14.01,2013-03-31 03:24:00,
2013-03-31 05:28:00,64.9,64.4,29.97,East,90,0.0,0.0,98,0.00,,---,0.00,VWS V14.01,2013-03-31 03:28:00,
2013-03-31 05:30:00,64.9,64.4,29.97,SE,135,0.0,0.0,98,0.00,,---,0.00,VWS V14.01,2013-03-31 03:30:00,
2013-03-31 05:32:00,64.9,64.4,29.97,NNE,22,0.0,0.0,98,0.00,,---,0.00,VWS V14.01,2013-03-31 03:32:00,
2013-03-31 05:34:00,64.9,64.4,29.97,ESE,112,0.0,0.0,98,0.00,,---,0.00,VWS V14.01,2013-03-31 03:34:00,
2013-03-31 05:36:00,64.9,64.4,29.97,ESE,112,0.0,0.0,98,0.00,,---,0.00,VWS V14.01,2013-03-31 03:36:00,
2013-03-31 05:37:00,64.9,64.4,29.97,ESE,112,0.0,0.0,98,0.00,,---,0.00,VWS V14.01,2013-03-31 03:37:00,
2013-03-31 05:39:00,64.9,64.4,29.97,SSE,158,0.0,0.0,98,0.00,,---,0.00,VWS V14.01,2013-03-31 03:39:00,
2013-03-31 05:42:00,64.9,64.4,29.94,WSW,248,0.0,0.0,98,0.00,,---,0.00,VWS V14.01,2013-03-31 03:42:00,
2013-03-31 05:44:00,64.9,64.4,29.94,ESE,112,7.8,7.8,98,0.00,,---,0.00,VWS V14.01,2013-03-31 03:44:00,
2013-03-31 05:45:00,64.9,64.4,29.94,ESE,112,3.8,7.8,98,0.00,,---,0.00,VWS V14.01,2013-03-31 03:45:00,
2013-03-31 05:48:00,64.9,64.4,29.94,ENE,68,4.7,9.4,98,0.00,,---,0.00,VWS V14.01,2013-03-31 03:48:00,
2013-03-31 05:49:00,64.9,64.4,29.94,SE,135,6.5,8.7,98,0.00,,---,0.00,VWS V14.01,2013-03-31 03:49:00,
2013-03-31 05:52:00,64.9,64.4,29.94,East,90,0.0,0.0,98,0.00,,---,0.00,VWS V14.01,2013-03-31 03:52:00,
2013-03-31 05:58:00,64.9,64.4,29.97,NNE,22,0.0,11.0,98,0.00,,---,0.00,VWS V14.01,2013-03-31 03:58:00,
2013-03-31 06:00:00,64.9,64.4,29.97,East,90,0.0,0.0,98,0.00,,---,0.00,VWS V14.01,2013-03-31 04:00:00,
2013-03-31 06:02:00,64.9,64.4,29.97,East,90,0.0,0.0,98,0.00,,---,0.00,VWS V14.01,2013-03-31 04:02:00,
2013-03-31 06:04:00,64.9,64.4,29.97,East,90,0.0,0.0,98,0.00,,---,0.00,VWS V14.01,2013-03-31 04:04:00,
2013-03-31 06:06:00,64.9,64.4,29.97,ENE,68,0.0,3.8,98,0.00,,---,0.00,VWS V14.01,2013-03-31 04:06:00,
2013-03-31 06:08:00,64.9,64.4,29.97,ESE,112,0.0,5.8,98,0.00,,---,0.00,VWS V14.01,2013-03-31 04:08:00,
2013-03-31 06:11:00,64.9,64.4,29.97,East,90,0.0,0.0,98,0.00,,---,0.00,VWS V14.01,2013-03-31 04:11:00,
2013-03-31 06:12:00,64.9,64.4,29.97,ENE,68,0.0,0.0,98,0.00,,---,0.00,VWS V14.01,2013-03-31 04:12:00,
2013-03-31 06:13:00,64.9,64.4,29.97,ESE,112,0.0,0.0,98,0.00,,---,0.00,VWS V14.01,2013-03-31 04:13:00,
2013-03-31 06:16:00,64.9,64.4,29.97,ESE,112,0.0,0.0,98,0.00,,---,0.00,VWS V14.01,2013-03-31 04:16:00,
2013-03-31 06:18:00,64.9,64.4,29.97,East,90,0.0,0.0,98,0.00,,---,0.00,VWS V14.01,2013-03-31 04:18:00,
2013-03-31 06:21:00,64.9,64.4,29.97,ESE,112,0.0,0.0,98,0.00,,---,0.00,VWS V14.01,2013-03-31 04:21:00,
2013-03-31 06:24:00,64.9,64.4,29.97,ESE,112,0.0,0.0,98,0.00,,---,0.00,VWS V14.01,2013-03-31 04:24:00,
2013-03-31 06:27:00,64.9,64.4,29.97,ENE,68,0.0,0.0,98,0.00,,---,0.00,VWS V14.01,2013-03-31 04:27:00,
2013-03-31 06:30:00,65.1,64.5,29.97,ENE,68,0.0,0.0,98,0.00,,---,0.00,VWS V14.01,2013-03-31 04:30:00,
2013-03-31 06:34:00,65.1,64.5,29.97,East,90,0.0,0.0,98,0.00,,---,0.00,VWS V14.01,2013-03-31 04:34:00,
2013-03-31 06:35:00,65.1,64.5,29.97,ESE,112,0.0,0.0,98,0.00,,---,0.00,VWS V14.01,2013-03-31 04:35:00,
2013-03-31 06:37:00,65.1,64.5,29.97,NE,45,0.0,0.0,98,0.00,,---,0.00,VWS V14.01,2013-03-31 04:37:00,
2013-03-31 06:39:00,65.1,64.5,29.97,ENE,68,0.0,0.0,98,0.00,,---,0.00,VWS V14.01,2013-03-31 04:39:00,
2013-03-31 06:40:00,65.1,64.5,29.97,ESE,112,0.0,0.0,98,0.00,,---,0.00,VWS V14.01,2013-03-31 04:40:00,
2013-03-31 06:44:00,65.1,64.5,29.97,ESE,112,0.0,8.5,98,0.00,,---,0.00,VWS V14.01,2013-03-31 04:44:00,
2013-03-31 06:45:00,65.1,64.5,29.97,ESE,112,0.0,0.0,98,0.00,,---,0.00,VWS V14.01,2013-03-31 04:45:00,
2013-03-31 06:49:00,65.1,64.5,29.97,East,90,0.0,0.0,98,0.00,,---,0.00,VWS V14.01,2013-03-31 04:49:00,
2013-03-31 06:52:00,65.1,64.5,29.97,ESE,112,0.0,0.0,98,0.00,,---,0.00,VWS V14.01,2013-03-31 04:52:00,
2013-03-31 06:53:00,65.1,64.5,29.97,ENE,68,0.0,0.0,98,0.00,,---,0.00,VWS V14.01,2013-03-31 04:53:00,
2013-03-31 06:54:00,65.1,64.5,29.97,ESE,112,0.0,0.0,98,0.00,,---,0.00,VWS V14.01,2013-03-31 04:54:00,
2013-03-31 06:57:00,65.1,64.5,29.97,East,90,0.0,0.0,98,0.00,,---,0.00,VWS V14.01,2013-03-31 04:57:00,
2013-03-31 07:00:00,65.1,64.5,29.97,NE,45,0.0,0.0,98,0.00,,---,0.00,VWS V14.01,2013-03-31 05:00:00,
2013-03-31 07:02:00,65.1,64.5,29.97,ENE,68,3.8,3.8,98,0.00,,---,0.00,VWS V14.01,2013-03-31 05:02:00,
2013-03-31 07:04:00,65.1,64.5,29.97,ENE,68,0.0,0.0,98,0.00,,---,0.00,VWS V14.01,2013-03-31 05:04:00,
2013-03-31 07:06:00,65.1,64.5,29.97,ENE,68,0.0,0.0,98,0.00,,---,0.00,VWS V14.01,2013-03-31 05:06:00,
2013-03-31 07:07:00,65.1,64.5,29.97,ENE,68,0.0,0.0,98,0.00,,---,0.00,VWS V14.01,2013-03-31 05:07:00,
2013-03-31 07:11:00,65.1,64.5,29.97,ENE,68,0.0,0.0,98,0.00,,---,0.00,VWS V14.01,2013-03-31 05:11:00,
2013-03-31 07:13:00,65.1,64.5,29.97,ENE,68,0.0,0.0,98,0.00,,---,0.00,VWS V14.01,2013-03-31 05:13:00,
2013-03-31 07:16:00,65.1,64.5,29.97,ENE,68,0.0,0.0,98,0.00,,---,0.00,VWS V14.01,2013-03-31 05:16:00,
2013-03-31 07:17:00,65.1,64.5,29.97,ENE,68,0.0,0.0,98,0.00,,---,0.00,VWS V14.01,2013-03-31 05:17:00,
2013-03-31 07:18:00,65.1,64.5,29.97,ENE,68,0.0,0.0,98,0.00,,---,0.00,VWS V14.01,2013-03-31 05:18:00,
2013-03-31 07:22:00,65.1,64.5,29.97,ENE,68,0.0,0.0,98,0.00,,---,0.00,VWS V14.01,2013-03-31 05:22:00,
2013-03-31 07:26:00,65.1,64.5,29.97,ENE,68,0.0,0.0,98,0.00,,---,0.00,VWS V14.01,2013-03-31 05:26:00,
2013-03-31 07:27:00,65.1,64.5,29.97,ENE,68,0.0,0.0,98,0.00,,---,0.00,VWS V14.01,2013-03-31 05:27:00,
2013-03-31 07:28:00,65.1,64.5,29.97,ENE,68,0.0,0.0,98,0.00,,---,0.00,VWS V14.01,2013-03-31 05:28:00,
2013-03-31 07:34:00,65.1,64.5,29.97,ESE,112,0.0,0.0,98,0.00,,---,0.00,VWS V14.01,2013-03-31 05:34:00,
2013-03-31 07:38:00,65.1,64.5,29.97,ESE,112,0.0,0.0,98,0.00,,---,0.00,VWS V14.01,2013-03-31 05:38:00,
2013-03-31 07:39:00,65.1,64.5,29.97,ESE,112,0.0,0.0,98,0.00,,---,0.00,VWS V14.01,2013-03-31 05:39:00,
2013-03-31 07:43:00,65.1,64.5,29.97,SE,135,0.0,0.0,98,0.00,,---,0.00,VWS V14.01,2013-03-31 05:43:00,
2013-03-31 07:45:00,65.1,64.5,29.97,ESE,112,0.0,0.0,98,0.00,,---,0.00,VWS V14.01,2013-03-31 05:45:00,
2013-03-31 07:46:00,65.1,64.5,29.97,East,90,0.0,0.0,98,0.00,,---,0.00,VWS V14.01,2013-03-31 05:46:00,
2013-03-31 07:49:00,65.1,64.5,29.97,ENE,68,0.0,0.0,98,0.00,,---,0.00,VWS V14.01,2013-03-31 05:49:00,
2013-03-31 07:51:00,65.1,64.5,29.97,East,90,0.0,0.0,98,0.00,,---,0.00,VWS V14.01,2013-03-31 05:51:00,
2013-03-31 07:54:00,65.1,64.5,29.97,ENE,68,0.0,0.0,98,0.00,,---,0.00,VWS V14.01,2013-03-31 05:54:00,
2013-03-31 07:55:00,65.1,64.5,29.97,ESE,112,0.0,0.0,98,0.00,,---,0.00,VWS V14.01,2013-03-31 05:55:00,
2013-03-31 07:57:00,65.1,64.5,29.97,East,90,0.0,0.0,98,0.00,,---,0.00,VWS V14.01,2013-03-31 05:57:00,
2013-03-31 07:58:00,65.1,64.5,29.97,NE,45,0.0,0.0,98,0.00,,---,0.00,VWS V14.01,2013-03-31 05:58:00,
2013-03-31 08:00:00,65.1,64.5,29.97,ESE,112,0.0,0.0,98,0.00,,---,0.00,VWS V14.01,2013-03-31 06:00:00,
2013-03-31 08:04:00,65.1,64.5,29.97,ESE,112,0.0,0.0,98,0.00,,---,0.00,VWS V14.01,2013-03-31 06:04:00,
2013-03-31 08:07:00,65.1,64.5,29.97,ENE,68,0.0,0.0,98,0.00,,---,0.00,VWS V14.01,2013-03-31 06:07:00,
2013-03-31 08:08:00,65.1,64.5,29.97,East,90,0.0,0.0,98,0.00,,---,0.00,VWS V14.01,2013-03-31 06:08:00,
2013-03-31 08:09:00,65.1,64.5,29.97,SSE,158,0.0,0.0,98,0.00,,---,0.00,VWS V14.01,2013-03-31 06:09:00,
2013-03-31 08:11:00,65.1,64.5,29.97,East,90,0.0,0.0,98,0.00,,---,0.00,VWS V14.01,2013-03-31 06:11:00,
2013-03-31 08:13:00,65.1,64.5,29.97,ENE,68,0.0,0.0,98,0.00,,---,0.00,VWS V14.01,2013-03-31 06:13:00,
2013-03-31 08:16:00,65.1,64.5,29.97,East,90,0.0,0.0,98,0.00,,---,0.00,VWS V14.01,2013-03-31 06:16:00,
2013-03-31 08:19:00,65.1,64.5,29.97,ESE,112,0.0,0.0,98,0.00,,---,0.00,VWS V14.01,2013-03-31 06:19:00,
2013-03-31 08:20:00,65.1,64.5,29.97,SE,135,0.0,0.0,98,0.00,,---,0.00,VWS V14.01,2013-03-31 06:20:00,
2013-03-31 08:23:00,65.1,64.5,29.97,SE,135,0.0,0.0,98,0.00,,---,0.00,VWS V14.01,2013-03-31 06:23:00,
2013-03-31 08:24:00,65.1,64.5,29.97,SE,135,0.0,0.0,98,0.00,,---,0.00,VWS V14.01,2013-03-31 06:24:00,
2013-03-31 08:26:00,65.1,64.5,29.97,ENE,68,0.0,0.0,98,0.00,,---,0.00,VWS V14.01,2013-03-31 06:26:00,
2013-03-31 08:28:00,65.1,64.5,29.97,ESE,112,0.0,0.0,98,0.00,,---,0.00,VWS V14.01,2013-03-31 06:28:00,
2013-03-31 08:30:00,64.9,64.4,29.97,East,90,0.0,0.0,98,0.00,,---,0.00,VWS V14.01,2013-03-31 06:30:00,
2013-03-31 08:33:00,64.9,64.4,29.97,East,90,0.0,0.0,98,0.00,,---,0.00,VWS V14.01,2013-03-31 06:33:00,
2013-03-31 08:35:00,64.9,64.4,29.97,ESE,112,0.0,0.0,98,0.00,,---,0.00,VWS V14.01,2013-03-31 06:35:00,
2013-03-31 08:37:00,64.9,64.4,29.97,ESE,112,0.0,0.0,98,0.00,,---,0.00,VWS V14.01,2013-03-31 06:37:00,
2013-03-31 08:38:00,64.9,64.4,29.97,ENE,68,0.0,0.0,98,0.00,,---,0.00,VWS V14.01,2013-03-31 06:38:00,
2013-03-31 08:40:00,64.9,64.4,29.97,East,90,0.0,0.0,98,0.00,,---,0.00,VWS V14.01,2013-03-31 06:40:00,
2013-03-31 08:43:00,64.9,64.4,29.97,East,90,0.0,0.0,98,0.00,,---,0.00,VWS V14.01,2013-03-31 06:43:00,
2013-03-31 08:44:00,64.9,64.4,29.97,ESE,112,0.0,0.0,98,0.00,,---,0.00,VWS V14.01,2013-03-31 06:44:00,
2013-03-31 08:45:00,64.9,64.4,29.97,ESE,112,0.0,0.0,98,0.00,,---,0.00,VWS V14.01,2013-03-31 06:45:00,
2013-03-31 08:48:00,65.1,64.5,29.97,ESE,112,0.0,0.0,98,0.00,,---,0.00,VWS V14.01,2013-03-31 06:48:00,
2013-03-31 08:49:00,65.1,64.5,29.97,ESE,112,0.0,0.0,98,0.00,,---,0.00,VWS V14.01,2013-03-31 06:49:00,
2013-03-31 08:51:00,65.1,64.5,29.97,ESE,112,0.0,0.0,98,0.00,,---,0.00,VWS V14.01,2013-03-31 06:51:00,
2013-03-31 08:54:00,65.1,64.5,29.97,East,90,0.0,0.0,98,0.00,,---,0.00,VWS V14.01,2013-03-31 06:54:00,
2013-03-31 08:55:00,65.1,64.5,29.97,East,90,0.0,0.0,98,0.00,,---,0.00,VWS V14.01,2013-03-31 06:55:00,
2013-03-31 08:57:00,65.1,64.5,29.97,ESE,112,0.0,0.0,98,0.00,,---,0.00,VWS V14.01,2013-03-31 06:57:00,
2013-03-31 08:59:00,65.1,64.5,29.97,East,90,0.0,0.0,98,0.00,,---,0.00,VWS V14.01,2013-03-31 06:59:00,
2013-03-31 09:02:00,65.1,64.5,29.97,East,90,0.0,0.0,98,0.00,,---,0.00,VWS V14.01,2013-03-31 07:02:00,
2013-03-31 09:04:00,64.9,64.4,29.97,East,90,0.0,0.0,98,0.00,,---,0.00,VWS V14.01,2013-03-31 07:04:00,
2013-03-31 09:09:00,64.9,64.4,29.97,SE,135,0.0,0.0,98,0.00,,---,0.00,VWS V14.01,2013-03-31 07:09:00,
2013-03-31 09:10:00,64.9,64.4,29.97,ESE,112,0.0,0.0,98,0.00,,---,0.00,VWS V14.01,2013-03-31 07:10:00,
2013-03-31 09:12:00,64.9,64.4,29.97,ESE,112,0.0,0.0,98,0.00,,---,0.00,VWS V14.01,2013-03-31 07:12:00,
2013-03-31 09:14:00,64.9,64.4,29.97,East,90,0.0,0.0,98,0.00,,---,0.00,VWS V14.01,2013-03-31 07:14:00,
2013-03-31 09:15:00,64.9,64.4,29.97,ESE,112,0.0,0.0,98,0.00,,---,0.00,VWS V14.01,2013-03-31 07:15:00,
2013-03-31 09:16:00,64.8,64.2,29.97,ENE,68,0.0,0.0,98,0.00,,---,0.00,VWS V14.01,2013-03-31 07:16:00,
2013-03-31 09:19:00,64.8,64.2,29.97,ESE,112,0.0,0.0,98,0.00,,---,0.00,VWS V14.01,2013-03-31 07:19:00,
2013-03-31 09:21:00,64.8,64.2,29.97,ESE,112,0.0,0.0,98,0.00,,---,0.00,VWS V14.01,2013-03-31 07:21:00,
2013-03-31 09:24:00,64.6,64.0,29.97,East,90,0.0,0.0,98,0.00,,---,0.00,VWS V14.01,2013-03-31 07:24:00,
2013-03-31 09:25:00,64.6,64.0,29.97,East,90,0.0,0.0,98,0.00,,---,0.00,VWS V14.01,2013-03-31 07:25:00,
2013-03-31 09:29:00,64.6,64.0,29.94,ESE,112,0.0,0.0,98,0.00,,---,0.00,VWS V14.01,2013-03-31 07:29:00,
2013-03-31 09:31:00,64.4,63.8,29.94,East,90,0.0,0.0,98,0.00,,---,0.00,VWS V14.01,2013-03-31 07:31:00,
2013-03-31 09:34:00,64.4,63.8,29.94,ENE,68,0.0,0.0,98,0.00,,---,0.00,VWS V14.01,2013-03-31 07:34:00,
2013-03-31 09:36:00,64.4,63.8,29.94,ESE,112,4.0,6.0,98,0.00,,---,0.00,VWS V14.01,2013-03-31 07:36:00,
2013-03-31 09:38:00,64.4,63.8,29.94,ESE,112,1.1,3.8,98,0.00,,---,0.00,VWS V14.01,2013-03-31 07:38:00,
2013-03-31 09:40:00,64.4,63.5,29.94,ESE,112,0.0,6.0,97,0.00,,---,0.00,VWS V14.01,2013-03-31 07:40:00,
2013-03-31 09:43:00,64.2,63.7,29.97,East,90,0.0,0.0,98,0.00,,---,0.00,VWS V14.01,2013-03-31 07:43:00,
2013-03-31 09:44:00,64.2,63.7,29.97,ENE,68,0.0,0.0,98,0.00,,---,0.00,VWS V14.01,2013-03-31 07:44:00,
2013-03-31 09:45:00,64.2,63.7,29.97,ENE,68,0.0,0.0,98,0.00,,---,0.00,VWS V14.01,2013-03-31 07:45:00,
2013-03-31 09:47:00,64.4,63.5,29.97,ENE,68,0.0,0.0,97,0.00,,---,0.00,VWS V14.01,2013-03-31 07:47:00,
2013-03-31 09:50:00,64.4,63.5,29.97,ENE,68,0.0,0.0,97,0.00,,---,0.00,VWS V14.01,2013-03-31 07:50:00,
2013-03-31 09:52:00,64.2,63.7,29.97,ESE,112,0.0,0.0,98,0.00,,---,0.00,VWS V14.01,2013-03-31 07:52:00,
2013-03-31 09:55:00,64.2,63.3,29.97,ESE,112,0.0,0.0,97,0.00,,---,0.00,VWS V14.01,2013-03-31 07:55:00,
2013-03-31 09:58:00,64.2,63.7,29.97,ESE,112,0.0,0.0,98,0.00,,---,0.00,VWS V14.01,2013-03-31 07:58:00,
2013-03-31 10:00:00,64.2,63.7,29.97,ESE,112,0.0,0.0,98,0.00,,---,0.00,VWS V14.01,2013-03-31 08:00:00,
2013-03-31 10:03:00,64.0,63.5,29.97,SSE,158,5.4,5.4,98,0.00,,---,0.00,VWS V14.01,2013-03-31 08:03:00,
2013-03-31 10:05:00,64.2,63.7,29.97,ESE,112,0.0,0.0,98,0.00,,---,0.00,VWS V14.01,2013-03-31 08:05:00,
2013-03-31 10:06:00,64.2,63.7,29.97,ESE,112,0.0,0.0,98,0.00,,---,0.00,VWS V14.01,2013-03-31 08:06:00,
2013-03-31 10:10:00,64.2,63.7,29.97,ESE,112,0.0,0.0,98,0.00,,---,0.00,VWS V14.01,2013-03-31 08:10:00,
2013-03-31 10:11:00,64.0,63.5,29.94,ESE,112,7.6,7.6,98,0.00,,---,0.00,VWS V14.01,2013-03-31 08:11:00,
2013-03-31 10:14:00,64.2,63.7,29.94,ESE,112,0.0,5.8,98,0.00,,---,0.00,VWS V14.01,2013-03-31 08:14:00,
2013-03-31 10:16:00,64.2,63.7,29.94,ENE,68,0.0,0.0,98,0.00,,---,0.00,VWS V14.01,2013-03-31 08:16:00,
2013-03-31 10:17:00,64.2,63.7,29.94,ESE,112,0.0,0.0,98,0.00,,---,0.00,VWS V14.01,2013-03-31 08:17:00,
2013-03-31 10:20:00,64.2,63.7,29.94,ESE,112,0.0,0.0,98,0.00,,---,0.00,VWS V14.01,2013-03-31 08:20:00,
2013-03-31 10:22:00,64.2,63.7,29.94,ENE,68,0.0,0.0,98,0.00,,---,0.00,VWS V14.01,2013-03-31 08:22:00,
2013-03-31 10:24:00,64.2,63.7,29.94,ESE,112,0.0,0.0,98,0.00,,---,0.00,VWS V14.01,2013-03-31 08:24:00,
2013-03-31 10:26:00,64.2,63.7,29.94,ESE,112,0.0,2.9,98,0.00,,---,0.00,VWS V14.01,2013-03-31 08:26:00,
2013-03-31 10:30:00,64.4,63.8,29.94,East,90,0.0,0.0,98,0.00,,---,0.00,VWS V14.01,2013-03-31 08:30:00,
2013-03-31 10:31:00,64.4,63.8,29.94,ESE,112,0.0,0.0,98,0.00,,---,0.00,VWS V14.01,2013-03-31 08:31:00,
2013-03-31 10:32:00,64.4,63.8,29.94,ESE,112,0.0,0.0,98,0.00,,---,0.00,VWS V14.01,2013-03-31 08:32:00,
2013-03-31 10:36:00,64.6,64.0,29.94,East,90,0.0,0.0,98,0.00,,---,0.00,VWS V14.01,2013-03-31 08:36:00,
2013-03-31 10:37:00,64.6,64.0,29.94,ESE,112,0.0,0.0,98,0.00,,---,0.00,VWS V14.01,2013-03-31 08:37:00,
2013-03-31 10:40:00,64.8,64.2,29.94,ESE,112,0.0,0.0,98,0.00,,---,0.00,VWS V14.01,2013-03-31 08:40:00,
2013-03-31 10:41:00,64.8,63.9,29.94,ESE,112,0.0,0.0,97,0.00,,---,0.00,VWS V14.01,2013-03-31 08:41:00,
2013-03-31 10:42:00,64.8,63.9,29.94,ESE,112,0.0,0.0,97,0.00,,---,0.00,VWS V14.01,2013-03-31 08:42:00,
2013-03-31 10:47:00,64.8,63.9,29.94,NNE,22,0.0,0.0,97,0.00,,---,0.00,VWS V14.01,2013-03-31 08:47:00,
2013-03-31 10:48:00,64.8,63.9,29.94,ENE,68,0.0,0.0,97,0.00,,---,0.00,VWS V14.01,2013-03-31 08:48:00,
2013-03-31 10:50:00,64.6,63.4,29.94,ENE,68,0.0,0.0,96,0.00,,---,0.00,VWS V14.01,2013-03-31 08:50:00,
2013-03-31 10:52:00,64.4,63.2,29.94,East,90,0.0,0.0,96,0.00,,---,0.00,VWS V14.01,2013-03-31 08:52:00,
2013-03-31 10:53:00,64.6,63.4,29.94,SE,135,0.0,0.0,96,0.00,,---,0.00,VWS V14.01,2013-03-31 08:53:00,
2013-03-31 10:54:00,64.6,63.4,29.94,ESE,112,0.0,0.0,96,0.00,,---,0.00,VWS V14.01,2013-03-31 08:54:00,
2013-03-31 10:59:00,64.4,63.2,29.94,ENE,68,0.0,0.0,96,0.00,,---,0.00,VWS V14.01,2013-03-31 08:59:00,
2013-03-31 11:01:00,64.2,63.1,29.94,ESE,112,0.0,0.0,96,0.00,,---,0.00,VWS V14.01,2013-03-31 09:01:00,
2013-03-31 11:03:00,64.2,63.1,29.94,ESE,112,0.0,0.0,96,0.00,,---,0.00,VWS V14.01,2013-03-31 09:03:00,
2013-03-31 11:06:00,64.2,63.1,29.94,ESE,112,0.0,0.0,96,0.00,,---,0.00,VWS V14.01,2013-03-31 09:06:00,
2013-03-31 11:07:00,64.2,63.1,29.94,ENE,68,0.0,0.0,96,0.00,,---,0.00,VWS V14.01,2013-03-31 09:07:00,
2013-03-31 11:09:00,64.2,63.1,29.94,ESE,112,0.0,0.0,96,0.00,,---,0.00,VWS V14.01,2013-03-31 09:09:00,
2013-03-31 11:12:00,64.2,63.1,29.94,ESE,112,0.0,5.8,96,0.00,,---,0.00,VWS V14.01,2013-03-31 09:12:00,
2013-03-31 11:15:00,64.2,63.1,29.94,ENE,68,0.0,0.0,96,0.00,,---,0.00,VWS V14.01,2013-03-31 09:15:00,
2013-03-31 11:17:00,64.2,63.1,29.94,ENE,68,0.0,0.0,96,0.00,,---,0.00,VWS V14.01,2013-03-31 09:17:00,
2013-03-31 11:18:00,64.2,63.1,29.94,East,90,0.0,0.0,96,0.00,,---,0.00,VWS V14.01,2013-03-31 09:18:00,
2013-03-31 11:20:00,64.4,63.2,29.94,ENE,68,0.0,0.0,96,0.00,,---,0.00,VWS V14.01,2013-03-31 09:20:00,
2013-03-31 11:21:00,64.2,63.1,29.94,NE,45,0.0,0.0,96,0.00,,---,0.00,VWS V14.01,2013-03-31 09:21:00,
2013-03-31 11:22:00,64.2,63.1,29.94,ESE,112,0.0,0.0,96,0.00,,---,0.00,VWS V14.01,2013-03-31 09:22:00,
2013-03-31 11:25:00,64.2,63.1,29.94,East,90,0.0,0.0,96,0.00,,---,0.00,VWS V14.01,2013-03-31 09:25:00,
2013-03-31 11:26:00,64.2,63.1,29.91,East,90,0.0,0.0,96,0.00,,---,0.00,VWS V14.01,2013-03-31 09:26:00,
2013-03-31 11:27:00,64.0,62.9,29.91,ESE,112,7.6,8.7,96,0.00,,---,0.00,VWS V14.01,2013-03-31 09:27:00,
2013-03-31 11:29:00,64.0,62.9,29.91,East,90,1.6,7.6,96,0.00,,---,0.00,VWS V14.01,2013-03-31 09:29:00,
2013-03-31 11:32:00,64.2,63.1,29.91,ENE,68,0.0,0.0,96,0.00,,---,0.00,VWS V14.01,2013-03-31 09:32:00,
2013-03-31 11:33:00,64.4,63.2,29.91,ENE,68,0.0,0.0,96,0.00,,---,0.00,VWS V14.01,2013-03-31 09:33:00,
2013-03-31 11:36:00,64.4,63.2,29.91,ESE,112,0.0,0.0,96,0.00,,---,0.00,VWS V14.01,2013-03-31 09:36:00,
2013-03-31 11:37:00,64.4,63.2,29.91,East,90,0.0,0.0,96,0.00,,---,0.00,VWS V14.01,2013-03-31 09:37:00,
2013-03-31 11:41:00,64.4,62.9,29.91,ESE,112,2.2,6.0,95,0.00,,---,0.00,VWS V14.01,2013-03-31 09:41:00,
2013-03-31 11:42:00,64.4,62.9,29.91,East,90,0.0,6.9,95,0.00,,---,0.00,VWS V14.01,2013-03-31 09:42:00,
2013-03-31 11:44:00,64.2,63.1,29.91,East,90,0.0,0.0,96,0.00,,---,0.00,VWS V14.01,2013-03-31 09:44:00,
2013-03-31 11:45:00,64.2,62.8,29.91,East,90,0.0,3.4,95,0.00,,---,0.00,VWS V14.01,2013-03-31 09:45:00,
2013-03-31 11:47:00,64.4,62.9,29.91,ESE,112,0.0,0.0,95,0.00,,---,0.00,VWS V14.01,2013-03-31 09:47:00,
2013-03-31 11:50:00,64.2,63.1,29.91,East,90,0.0,0.0,96,0.00,,---,0.00,VWS V14.01,2013-03-31 09:50:00,
2013-03-31 11:52:00,64.2,62.8,29.91,East,90,0.0,4.5,95,0.00,,---,0.00,VWS V14.01,2013-03-31 09:52:00,
2013-03-31 11:53:00,64.2,62.8,29.91,ESE,112,0.0,6.5,95,0.00,,---,0.00,VWS V14.01,2013-03-31 09:53:00,
2013-03-31 11:56:00,64.2,63.1,29.91,East,90,0.0,6.7,96,0.00,,---,0.00,VWS V14.01,2013-03-31 09:56:00,
2013-03-31 11:57:00,64.2,63.1,29.91,ENE,68,0.0,0.0,96,0.00,,---,0.00,VWS V14.01,2013-03-31 09:57:00,
2013-03-31 11:58:00,64.2,63.1,29.91,ENE,68,0.0,0.0,96,0.00,,---,0.00,VWS V14.01,2013-03-31 09:58:00,
2013-03-31 12:00:00,64.2,63.1,29.91,SSE,158,0.0,0.0,96,0.00,,---,0.00,VWS V14.01,2013-03-31 10:00:00,
2013-03-31 12:03:00,64.2,63.1,29.91,ENE,68,0.0,0.0,96,0.00,,---,0.00,VWS V14.01,2013-03-31 10:03:00,
2013-03-31 12:04:00,64.2,63.1,29.91,ESE,112,0.0,0.0,96,0.00,,---,0.00,VWS V14.01,2013-03-31 10:04:00,
2013-03-31 12:06:00,64.2,63.1,29.91,East,90,0.0,0.0,96,0.00,,---,0.00,VWS V14.01,2013-03-31 10:06:00,
2013-03-31 12:10:00,64.2,63.1,29.91,ESE,112,0.0,0.0,96,0.00,,---,0.00,VWS V14.01,2013-03-31 10:10:00,
2013-03-31 12:11:00,64.2,63.1,29.91,ESE,112,0.0,0.0,96,0.00,,---,0.00,VWS V14.01,2013-03-31 10:11:00,
2013-03-31 12:12:00,64.2,63.1,29.91,East,90,0.0,0.0,96,0.00,,---,0.00,VWS V14.01,2013-03-31 10:12:00,
2013-03-31 12:15:00,64.2,63.1,29.91,East,90,0.0,0.0,96,0.00,,---,0.00,VWS V14.01,2013-03-31 10:15:00,
2013-03-31 12:18:00,64.0,62.9,29.91,ESE,112,3.8,3.8,96,0.00,,---,0.00,VWS V14.01,2013-03-31 10:18:00,
2013-03-31 12:19:00,64.0,62.9,29.91,ESE,112,0.0,3.8,96,0.00,,---,0.00,VWS V14.01,2013-03-31 10:19:00,
2013-03-31 12:23:00,64.0,63.2,29.91,ENE,68,0.0,0.0,97,0.00,,---,0.00,VWS V14.01,2013-03-31 10:23:00,
2013-03-31 12:24:00,64.0,63.2,29.91,East,90,0.0,0.0,97,0.00,,---,0.00,VWS V14.01,2013-03-31 10:24:00,
2013-03-31 12:27:00,64.0,63.2,29.91,East,90,0.0,0.0,97,0.00,,---,0.00,VWS V14.01,2013-03-31 10:27:00,
2013-03-31 12:28:00,63.9,63.0,29.91,ENE,68,0.0,0.0,97,0.00,,---,0.00,VWS V14.01,2013-03-31 10:28:00,
2013-03-31 12:29:00,63.9,63.0,29.91,ESE,112,0.0,0.0,97,0.00,,---,0.00,VWS V14.01,2013-03-31 10:29:00,
2013-03-31 12:34:00,64.0,63.2,29.91,ESE,112,0.0,0.0,97,0.00,,---,0.00,VWS V14.01,2013-03-31 10:34:00,
2013-03-31 12:35:00,63.9,63.0,29.91,East,90,0.0,0.0,97,0.00,,---,0.00,VWS V14.01,2013-03-31 10:35:00,
2013-03-31 12:37:00,63.9,63.0,29.91,ESE,112,0.0,0.0,97,0.00,,---,0.00,VWS V14.01,2013-03-31 10:37:00,
2013-03-31 12:38:00,63.9,63.3,29.91,ENE,68,0.0,0.0,98,0.00,,---,0.00,VWS V14.01,2013-03-31 10:38:00,
2013-03-31 12:42:00,63.9,63.3,29.91,ESE,112,3.1,3.1,98,0.00,,---,0.00,VWS V14.01,2013-03-31 10:42:00,
2013-03-31 12:45:00,63.9,63.3,29.91,ENE,68,3.8,3.8,98,0.00,,---,0.00,VWS V14.01,2013-03-31 10:45:00,
2013-03-31 12:48:00,63.9,63.3,29.91,ESE,112,0.0,7.4,98,0.00,,---,0.00,VWS V14.01,2013-03-31 10:48:00,
2013-03-31 12:50:00,63.9,63.3,29.91,SE,135,0.0,0.0,98,0.00,,---,0.00,VWS V14.01,2013-03-31 10:50:00,
2013-03-31 12:51:00,63.9,63.3,29.91,ESE,112,0.0,5.8,98,0.00,,---,0.00,VWS V14.01,2013-03-31 10:51:00,
2013-03-31 12:52:00,63.9,63.3,29.91,ENE,68,0.0,0.0,98,0.00,,---,0.00,VWS V14.01,2013-03-31 10:52:00,
2013-03-31 12:56:00,64.0,63.5,29.91,ESE,112,0.0,0.0,98,0.00,,---,0.00,VWS V14.01,2013-03-31 10:56:00,
2013-03-31 12:57:00,64.2,63.7,29.91,ENE,68,0.0,0.0,98,0.00,,---,0.00,VWS V14.01,2013-03-31 10:57:00,
2013-03-31 12:58:00,64.2,63.7,29.88,East,90,0.0,0.0,98,0.00,,---,0.00,VWS V14.01,2013-03-31 10:58:00,
2013-03-31 13:02:00,64.2,63.7,29.88,ESE,112,0.0,0.0,98,0.00,,---,0.00,VWS V14.01,2013-03-31 11:02:00,
2013-03-31 13:04:00,64.2,63.7,29.88,ESE,112,0.0,0.0,98,0.00,,---,0.00,VWS V14.01,2013-03-31 11:04:00,
2013-03-31 13:06:00,64.2,63.7,29.88,ESE,112,0.0,0.0,98,0.00,,---,0.00,VWS V14.01,2013-03-31 11:06:00,
2013-03-31 13:09:00,64.2,63.7,29.88,ESE,112,0.0,0.0,98,0.00,,---,0.00,VWS V14.01,2013-03-31 11:09:00,
2013-03-31 13:10:00,64.2,63.7,29.88,East,90,0.0,0.0,98,0.00,,---,0.00,VWS V14.01,2013-03-31 11:10:00,
2013-03-31 13:11:00,64.2,63.7,29.88,ESE,112,0.0,0.0,98,0.00,,---,0.00,VWS V14.01,2013-03-31 11:11:00,
2013-03-31 13:12:00,64.2,63.7,29.88,East,90,0.0,0.0,98,0.00,,---,0.00,VWS V14.01,2013-03-31 11:12:00,
2013-03-31 13:16:00,64.2,63.7,29.88,ENE,68,7.2,7.2,98,0.00,,---,0.00,VWS V14.01,2013-03-31 11:16:00,
2013-03-31 13:17:00,64.2,63.7,29.88,ENE,68,0.0,7.4,98,0.00,,---,0.00,VWS V14.01,2013-03-31 11:17:00,
2013-03-31 13:22:00,64.0,63.5,29.88,East,90,0.0,3.1,98,0.00,,---,0.00,VWS V14.01,2013-03-31 11:22:00,
2013-03-31 13:24:00,64.2,63.7,29.88,ENE,68,0.0,0.0,98,0.00,,---,0.00,VWS V14.01,2013-03-31 11:24:00,
2013-03-31 13:25:00,64.2,63.7,29.88,ENE,68,0.0,0.0,98,0.00,,---,0.00,VWS V14.01,2013-03-31 11:25:00,
2013-03-31 13:28:00,64.2,63.7,29.88,ENE,68,0.0,0.0,98,0.00,,---,0.00,VWS V14.01,2013-03-31 11:28:00,
2013-03-31 13:31:00,64.2,63.7,29.88,East,90,0.0,0.0,98,0.00,,---,0.00,VWS V14.01,2013-03-31 11:31:00,
2013-03-31 13:32:00,64.4,63.8,29.88,ESE,112,0.0,7.2,98,0.00,,---,0.00,VWS V14.01,2013-03-31 11:32:00,
2013-03-31 13:33:00,64.4,63.8,29.88,East,90,0.9,0.9,98,0.00,,---,0.00,VWS V14.01,2013-03-31 11:33:00,
2013-03-31 13:37:00,64.4,63.8,29.88,NE,45,0.0,3.8,98,0.00,,---,0.00,VWS V14.01,2013-03-31 11:37:00,
2013-03-31 13:38:00,64.4,63.8,29.88,ESE,112,6.5,8.7,98,0.00,,---,0.00,VWS V14.01,2013-03-31 11:38:00,
2013-03-31 13:42:00,64.4,63.8,29.88,ENE,68,0.0,9.6,98,0.00,,---,0.00,VWS V14.01,2013-03-31 11:42:00,
2013-03-31 13:44:00,64.4,63.8,29.88,ENE,68,0.0,1.6,98,0.00,,---,0.00,VWS V14.01,2013-03-31 11:44:00,
2013-03-31 13:45:00,64.4,63.8,29.88,ENE,68,6.0,7.6,98,0.00,,---,0.00,VWS V14.01,2013-03-31 11:45:00,
2013-03-31 13:47:00,64.4,63.8,29.88,ESE,112,0.0,0.0,98,0.00,,---,0.00,VWS V14.01,2013-03-31 11:47:00,
2013-03-31 13:52:00,64.4,63.8,29.88,ENE,68,0.0,8.5,98,0.00,,---,0.00,VWS V14.01,2013-03-31 11:52:00,
2013-03-31 13:53:00,64.6,64.0,29.88,ESE,112,0.0,0.0,98,0.00,,---,0.00,VWS V14.01,2013-03-31 11:53:00,
2013-03-31 13:58:00,64.4,63.8,29.88,East,90,0.0,0.0,98,0.00,,---,0.00,VWS V14.01,2013-03-31 11:58:00,
2013-03-31 13:59:00,64.6,64.0,29.88,ESE,112,0.0,0.0,98,0.00,,---,0.00,VWS V14.01,2013-03-31 11:59:00,
2013-03-31 14:00:00,64.6,64.0,29.88,East,90,6.5,9.8,98,0.00,,---,0.00,VWS V14.01,2013-03-31 12:00:00,
2013-03-31 14:05:00,64.8,64.2,29.88,ESE,112,0.0,0.0,98,0.00,,---,0.00,VWS V14.01,2013-03-31 12:05:00,
2013-03-31 14:06:00,64.8,64.2,29.88,ENE,68,0.0,0.0,98,0.00,,---,0.00,VWS V14.01,2013-03-31 12:06:00,
2013-03-31 14:10:00,64.6,64.0,29.88,East,90,0.0,0.0,98,0.00,,---,0.00,VWS V14.01,2013-03-31 12:10:00,
2013-03-31 14:12:00,64.8,64.2,29.85,East,90,0.0,6.9,98,0.00,,---,0.00,VWS V14.01,2013-03-31 12:12:00,
2013-03-31 14:13:00,64.8,64.2,29.85,East,90,0.0,5.8,98,0.00,,---,0.00,VWS V14.01,2013-03-31 12:13:00,
2013-03-31 14:17:00,64.8,64.2,29.85,ESE,112,0.0,0.0,98,0.00,,---,0.00,VWS V14.01,2013-03-31 12:17:00,
2013-03-31 14:18:00,64.8,64.2,29.85,North,0,0.0,0.0,98,0.00,,---,0.00,VWS V14.01,2013-03-31 12:18:00,
2013-03-31 14:19:00,64.8,64.2,29.85,ESE,112,0.0,0.0,98,0.00,,---,0.00,VWS V14.01,2013-03-31 12:19:00,
2013-03-31 14:20:00,64.8,64.2,29.85,ESE,112,0.0,0.0,98,0.00,,---,0.00,VWS V14.01,2013-03-31 12:20:00,
2013-03-31 14:23:00,64.8,64.2,29.85,ENE,68,0.0,0.0,98,0.00,,---,0.00,VWS V14.01,2013-03-31 12:23:00,
2013-03-31 14:27:00,64.8,64.2,29.85,ESE,112,4.3,4.3,98,0.00,,---,0.00,VWS V14.01,2013-03-31 12:27:00,
2013-03-31 14:28:00,64.8,64.2,29.85,ESE,112,0.0,4.3,98,0.00,,---,0.00,VWS V14.01,2013-03-31 12:28:00,
2013-03-31 14:31:00,64.8,64.2,29.85,NNE,22,0.0,3.6,98,0.00,,---,0.00,VWS V14.01,2013-03-31 12:31:00,
2013-03-31 14:33:00,64.8,64.2,29.85,East,90,8.1,8.1,98,0.00,,---,0.00,VWS V14.01,2013-03-31 12:33:00,
2013-03-31 14:36:00,64.8,64.2,29.85,East,90,0.0,8.1,98,0.00,,---,0.00,VWS V14.01,2013-03-31 12:36:00,
2013-03-31 14:38:00,64.8,64.2,29.85,ESE,112,0.0,0.0,98,0.00,,---,0.00,VWS V14.01,2013-03-31 12:38:00,
2013-03-31 14:41:00,64.8,64.2,29.85,ESE,112,0.0,0.0,98,0.00,,---,0.00,VWS V14.01,2013-03-31 12:41:00,
2013-03-31 14:44:00,64.9,64.4,29.85,ESE,112,9.8,9.8,98,0.00,,---,0.00,VWS V14.01,2013-03-31 12:44:00,
2013-03-31 14:45:00,64.9,64.4,29.85,ESE,112,3.8,9.8,98,0.00,,---,0.00,VWS V14.01,2013-03-31 12:45:00,
2013-03-31 14:46:00,64.9,64.4,29.85,ESE,112,2.2,3.8,98,0.00,,---,0.00,VWS V14.01,2013-03-31 12:46:00,
2013-03-31 14:47:00,64.9,64.4,29.85,NE,45,0.0,2.2,98,0.00,,---,0.00,VWS V14.01,2013-03-31 12:47:00,
2013-03-31 14:50:00,65.1,64.5,29.85,ENE,68,1.3,6.5,98,0.00,,---,0.00,VWS V14.01,2013-03-31 12:50:00,
2013-03-31 14:51:00,64.9,64.4,29.85,ESE,112,0.0,5.4,98,0.00,,---,0.00,VWS V14.01,2013-03-31 12:51:00,
2013-03-31 14:55:00,65.1,64.5,29.85,South,180,0.0,0.0,98,0.00,,---,0.00,VWS V14.01,2013-03-31 12:55:00,
2013-03-31 14:56:00,65.1,64.5,29.82,East,90,0.0,0.0,98,0.00,,---,0.00,VWS V14.01,2013-03-31 12:56:00,
2013-03-31 14:57:00,65.1,64.5,29.82,East,90,0.0,0.0,98,0.00,,---,0.00,VWS V14.01,2013-03-31 12:57:00,
2013-03-31 15:02:00,65.1,64.5,29.82,ENE,68,0.0,7.2,98,0.00,,---,0.00,VWS V14.01,2013-03-31 13:02:00,
2013-03-31 15:04:00,65.1,64.5,29.82,East,90,0.0,0.0,98,0.00,,---,0.00,VWS V14.01,2013-03-31 13:04:00,
2013-03-31 15:09:00,65.1,64.5,29.82,East,90,0.0,0.0,98,0.00,,---,0.00,VWS V14.01,2013-03-31 13:09:00,
2013-03-31 15:10:00,65.1,64.5,29.82,East,90,0.0,0.0,98,0.00,,---,0.00,VWS V14.01,2013-03-31 13:10:00,
2013-03-31 15:12:00,65.1,64.5,29.82,East,90,4.5,4.5,98,0.00,,---,0.00,VWS V14.01,2013-03-31 13:12:00,
2013-03-31 15:13:00,65.1,64.5,29.82,East,90,0.0,6.9,98,0.00,,---,0.00,VWS V14.01,2013-03-31 13:13:00,
2013-03-31 15:15:00,65.1,64.5,29.82,East,90,5.6,8.7,98,0.00,,---,0.00,VWS V14.01,2013-03-31 13:15:00,
2013-03-31 15:17:00,65.1,64.5,29.82,SSE,158,0.0,5.6,98,0.00,,---,0.00,VWS V14.01,2013-03-31 13:17:00,
2013-03-31 15:19:00,65.1,64.5,29.82,East,90,0.0,0.0,98,0.00,,---,0.00,VWS V14.01,2013-03-31 13:19:00,
2013-03-31 15:22:00,65.1,64.5,29.82,ENE,68,0.0,0.0,98,0.00,,---,0.00,VWS V14.01,2013-03-31 13:22:00,
2013-03-31 15:24:00,65.1,64.5,29.82,ESE,112,0.0,0.0,98,0.00,,---,0.00,VWS V14.01,2013-03-31 13:24:00,
2013-03-31 15:25:00,65.1,64.5,29.82,East,90,0.0,0.0,98,0.00,,---,0.00,VWS V14.01,2013-03-31 13:25:00,
2013-03-31 15:29:00,65.1,64.5,29.82,ENE,68,0.0,0.0,98,0.00,,---,0.00,VWS V14.01,2013-03-31 13:29:00,
2013-03-31 15:30:00,65.1,64.5,29.82,ESE,112,0.0,0.0,98,0.00,,---,0.00,VWS V14.01,2013-03-31 13:30:00,
2013-03-31 15:32:00,65.1,64.5,29.82,ENE,68,0.0,0.0,98,0.00,,---,0.00,VWS V14.01,2013-03-31 13:32:00,
2013-03-31 15:34:00,65.1,64.5,29.82,ESE,112,0.0,9.4,98,0.00,,---,0.00,VWS V14.01,2013-03-31 13:34:00,
2013-03-31 15:35:00,65.1,64.5,29.82,ENE,68,9.2,9.2,98,0.00,,---,0.00,VWS V14.01,2013-03-31 13:35:00,
2013-03-31 15:38:00,64.9,64.4,29.82,ESE,112,0.0,0.0,98,0.00,,---,0.00,VWS V14.01,2013-03-31 13:38:00,
2013-03-31 15:41:00,65.1,64.5,29.82,East,90,0.0,0.0,98,0.00,,---,0.00,VWS V14.01,2013-03-31 13:41:00,
2013-03-31 15:42:00,65.1,64.5,29.82,ENE,68,0.0,0.0,98,0.00,,---,0.00,VWS V14.01,2013-03-31 13:42:00,
2013-03-31 15:44:00,64.9,64.4,29.82,East,90,0.0,0.0,98,0.00,,---,0.00,VWS V14.01,2013-03-31 13:44:00,
2013-03-31 15:47:00,64.9,64.4,29.82,East,90,0.0,0.0,98,0.00,,---,0.00,VWS V14.01,2013-03-31 13:47:00,
2013-03-31 15:50:00,64.9,64.4,29.82,East,90,0.0,0.0,98,0.00,,---,0.00,VWS V14.01,2013-03-31 13:50:00,
2013-03-31 15:54:00,64.9,64.4,29.82,NNE,22,0.0,0.0,98,0.00,,---,0.00,VWS V14.01,2013-03-31 13:54:00,
2013-03-31 15:57:00,64.8,64.2,29.82,ESE,112,0.0,5.6,98,0.00,,---,0.00,VWS V14.01,2013-03-31 13:57:00,
2013-03-31 15:58:00,64.8,64.2,29.82,ESE,112,5.4,5.4,98,0.00,,---,0.00,VWS V14.01,2013-03-31 13:58:00,
2013-03-31 16:00:00,64.8,64.2,29.82,ESE,112,0.0,5.4,98,0.00,,---,0.00,VWS V14.01,2013-03-31 14:00:00,
2013-03-31 16:01:00,64.6,64.0,29.82,East,90,0.0,4.5,98,0.00,,---,0.00,VWS V14.01,2013-03-31 14:01:00,
2013-03-31 16:04:00,64.6,64.0,29.82,ENE,68,0.0,0.0,98,0.00,,---,0.00,VWS V14.01,2013-03-31 14:04:00,
2013-03-31 16:06:00,64.6,64.0,29.82,NNE,22,0.0,0.0,98,0.00,,---,0.00,VWS V14.01,2013-03-31 14:06:00,
2013-03-31 16:11:00,64.6,64.0,29.82,ENE,68,0.0,0.0,98,0.00,,---,0.00,VWS V14.01,2013-03-31 14:11:00,
2013-03-31 16:12:00,64.8,64.2,29.82,ESE,112,0.0,8.7,98,0.00,,---,0.00,VWS V14.01,2013-03-31 14:12:00,
2013-03-31 16:13:00,64.8,64.2,29.82,NE,45,1.6,6.3,98,0.00,,---,0.00,VWS V14.01,2013-03-31 14:13:00,
2013-03-31 16:15:00,64.8,64.2,29.82,ENE,68,0.0,0.0,98,0.00,,---,0.00,VWS V14.01,2013-03-31 14:15:00,
2013-03-31 16:16:00,64.8,64.2,29.82,East,90,0.0,0.0,98,0.00,,---,0.00,VWS V14.01,2013-03-31 14:16:00,
2013-03-31 16:18:00,64.9,64.4,29.82,ENE,68,0.0,0.0,98,0.00,,---,0.00,VWS V14.01,2013-03-31 14:18:00,
2013-03-31 16:20:00,65.1,64.5,29.82,ENE,68,0.0,0.0,98,0.00,,---,0.00,VWS V14.01,2013-03-31 14:20:00,
2013-03-31 16:22:00,65.1,64.5,29.82,ENE,68,0.0,0.0,98,0.00,,---,0.00,VWS V14.01,2013-03-31 14:22:00,
2013-03-31 16:24:00,65.3,64.7,29.82,ENE,68,0.0,6.3,98,0.00,,---,0.00,VWS V14.01,2013-03-31 14:24:00,
2013-03-31 16:26:00,65.5,64.9,29.82,ENE,68,0.0,0.0,98,0.00,,---,0.00,VWS V14.01,2013-03-31 14:26:00,
2013-03-31 16:28:00,65.7,65.1,29.82,ESE,112,0.0,0.0,98,0.00,,---,0.00,VWS V14.01,2013-03-31 14:28:00,
2013-03-31 16:29:00,65.7,65.1,29.82,East,90,0.0,0.0,98,0.00,,---,0.00,VWS V14.01,2013-03-31 14:29:00,
2013-03-31 16:31:00,65.8,65.3,29.82,ESE,112,0.0,0.0,98,0.00,,---,0.00,VWS V14.01,2013-03-31 14:31:00,
2013-03-31 16:33:00,65.8,65.3,29.82,ENE,68,0.0,0.0,98,0.00,,---,0.00,VWS V14.01,2013-03-31 14:33:00,
2013-03-31 16:34:00,65.8,65.3,29.82,ESE,112,0.0,0.0,98,0.00,,---,0.00,VWS V14.01,2013-03-31 14:34:00,
2013-03-31 16:35:00,65.8,65.3,29.82,ENE,68,0.0,0.0,98,0.00,,---,0.00,VWS V14.01,2013-03-31 14:35:00,
2013-03-31 16:39:00,65.7,65.1,29.82,ESE,112,0.0,0.0,98,0.00,,---,0.00,VWS V14.01,2013-03-31 14:39:00,
2013-03-31 16:40:00,65.5,64.9,29.82,ESE,112,0.0,0.0,98,0.00,,---,0.00,VWS V14.01,2013-03-31 14:40:00,
2013-03-31 16:41:00,65.7,65.1,29.79,East,90,0.0,0.0,98,0.00,,---,0.00,VWS V14.01,2013-03-31 14:41:00,
2013-03-31 16:46:00,65.7,65.1,29.79,ESE,112,0.0,0.0,98,0.00,,---,0.00,VWS V14.01,2013-03-31 14:46:00,
2013-03-31 16:47:00,65.7,65.1,29.79,ENE,68,0.0,0.0,98,0.00,,---,0.00,VWS V14.01,2013-03-31 14:47:00,
2013-03-31 16:49:00,65.7,65.1,29.79,ESE,112,0.0,0.0,98,0.00,,---,0.00,VWS V14.01,2013-03-31 14:49:00,
2013-03-31 16:54:00,65.7,65.1,29.79,ESE,112,0.0,0.0,98,0.00,,---,0.00,VWS V14.01,2013-03-31 14:54:00,
2013-03-31 16:55:00,65.7,65.1,29.79,ESE,112,0.0,0.0,98,0.00,,---,0.00,VWS V14.01,2013-03-31 14:55:00,
2013-03-31 16:57:00,65.7,65.1,29.79,ESE,112,0.0,0.0,98,0.00,,---,0.00,VWS V14.01,2013-03-31 14:57:00,
2013-03-31 17:00:00,65.7,65.1,29.79,ENE,68,0.0,0.0,98,0.00,,---,0.00,VWS V14.01,2013-03-31 15:00:00,
2013-03-31 17:04:00,65.7,65.1,29.79,ENE,68,0.0,0.0,98,0.00,,---,0.00,VWS V14.01,2013-03-31 15:04:00,
2013-03-31 17:05:00,65.5,64.9,29.79,ENE,68,0.0,0.0,98,0.00,,---,0.00,VWS V14.01,2013-03-31 15:05:00,
2013-03-31 17:08:00,65.5,64.9,29.79,ESE,112,0.0,0.0,98,0.00,,---,0.00,VWS V14.01,2013-03-31 15:08:00,
2013-03-31 17:09:00,65.5,64.9,29.79,ENE,68,0.0,0.0,98,0.00,,---,0.00,VWS V14.01,2013-03-31 15:09:00,
2013-03-31 17:14:00,65.7,65.1,29.79,East,90,0.0,0.0,98,0.00,,---,0.00,VWS V14.01,2013-03-31 15:14:00,
2013-03-31 17:20:00,65.8,65.3,29.79,ESE,112,0.0,0.0,98,0.00,,---,0.00,VWS V14.01,2013-03-31 15:20:00,
2013-03-31 17:21:00,65.8,65.3,29.79,East,90,0.0,0.0,98,0.00,,---,0.00,VWS V14.01,2013-03-31 15:21:00,
2013-03-31 17:22:00,66.0,65.4,29.79,ESE,112,0.0,0.0,98,0.00,,---,0.00,VWS V14.01,2013-03-31 15:22:00,
2013-03-31 17:24:00,66.0,65.4,29.79,ESE,112,0.0,0.0,98,0.00,,---,0.00,VWS V14.01,2013-03-31 15:24:00,
2013-03-31 17:26:00,66.0,65.4,29.79,ENE,68,0.0,0.0,98,0.00,,---,0.00,VWS V14.01,2013-03-31 15:26:00,
2013-03-31 17:29:00,66.7,66.2,29.79,ENE,68,0.0,0.0,98,0.00,,---,0.00,VWS V14.01,2013-03-31 15:29:00,
2013-03-31 17:30:00,66.7,66.2,29.79,ENE,68,0.0,0.0,98,0.00,,---,0.00,VWS V14.01,2013-03-31 15:30:00,
2013-03-31 17:31:00,66.6,66.0,29.79,ENE,68,0.0,0.0,98,0.00,,---,0.00,VWS V14.01,2013-03-31 15:31:00,
2013-03-31 17:37:00,66.7,66.2,29.79,ESE,112,0.0,0.0,98,0.00,,---,0.00,VWS V14.01,2013-03-31 15:37:00,
2013-03-31 17:41:00,66.7,66.2,29.79,East,90,0.0,0.0,98,0.00,,---,0.00,VWS V14.01,2013-03-31 15:41:00,
2013-03-31 17:42:00,66.9,66.3,29.79,ENE,68,0.0,0.0,98,0.00,,---,0.00,VWS V14.01,2013-03-31 15:42:00,
2013-03-31 17:44:00,66.9,66.3,29.79,East,90,0.0,0.0,98,0.00,,---,0.00,VWS V14.01,2013-03-31 15:44:00,
2013-03-31 17:49:00,67.3,66.7,29.79,ENE,68,0.0,0.0,98,0.00,,---,0.00,VWS V14.01,2013-03-31 15:49:00,
2013-03-31 17:52:00,87.1,85.8,29.79,East,90,0.0,0.0,96,0.00,,---,0.00,VWS V14.01,2013-03-31 15:52:00,
2013-03-31 17:56:00,87.8,86.2,29.79,ESE,112,0.0,0.0,95,0.00,,---,0.00,VWS V14.01,2013-03-31 15:56:00,
2013-03-31 17:57:00,87.8,86.2,29.79,East,90,0.0,0.0,95,0.00,,---,0.00,VWS V14.01,2013-03-31 15:57:00,
2013-03-31 17:59:00,88.2,86.6,29.79,ESE,112,0.0,0.0,95,0.00,,---,0.00,VWS V14.01,2013-03-31 15:59:00,
2013-03-31 18:02:00,88.2,86.6,29.79,ENE,68,0.0,0.0,95,0.00,,---,0.00,VWS V14.01,2013-03-31 16:02:00,
2013-03-31 18:04:00,88.5,86.9,29.79,ESE,112,0.0,0.0,95,0.00,,---,0.00,VWS V14.01,2013-03-31 16:04:00,
2013-03-31 18:05:00,88.5,86.9,29.79,East,90,0.0,0.0,95,0.00,,---,0.00,VWS V14.01,2013-03-31 16:05:00,
2013-03-31 18:10:00,88.7,87.1,29.79,ESE,112,0.0,0.0,95,0.00,,---,0.00,VWS V14.01,2013-03-31 16:10:00,
2013-03-31 18:11:00,88.7,87.1,29.76,ESE,112,0.0,0.0,95,0.00,,---,0.00,VWS V14.01,2013-03-31 16:11:00,
2013-03-31 18:12:00,88.7,87.1,29.76,NNE,22,0.0,0.0,95,0.00,,---,0.00,VWS V14.01,2013-03-31 16:12:00,
2013-03-31 18:13:00,88.7,87.1,29.76,East,90,0.0,0.0,95,0.00,,---,0.00,VWS V14.01,2013-03-31 16:13:00,
2013-03-31 18:15:00,88.9,87.3,29.76,ESE,112,0.0,0.0,95,0.00,,---,0.00,VWS V14.01,2013-03-31 16:15:00,
2013-03-31 18:18:00,89.1,87.4,29.76,East,90,0.0,0.0,95,0.00,,---,0.00,VWS V14.01,2013-03-31 16:18:00,
2013-03-31 18:20:00,89.2,87.6,29.76,East,90,0.0,0.0,95,0.00,,---,0.00,VWS V14.01,2013-03-31 16:20:00,
2013-03-31 18:21:00,89.2,87.6,29.76,East,90,0.0,0.0,95,0.00,,---,0.00,VWS V14.01,2013-03-31 16:21:00,
2013-03-31 18:25:00,90.5,88.9,29.76,East,90,0.0,0.0,95,0.00,,---,0.00,VWS V14.01,2013-03-31 16:25:00,
2013-03-31 18:27:00,90.7,89.1,29.76,ESE,112,0.0,0.0,95,0.00,,---,0.00,VWS V14.01,2013-03-31 16:27:00,
2013-03-31 18:28:00,90.7,89.1,29.76,ESE,112,0.0,0.0,95,0.00,,---,0.00,VWS V14.01,2013-03-31 16:28:00,
2013-03-31 18:33:00,92.3,90.3,29.76,ESE,112,0.0,0.0,94,0.00,,---,0.00,VWS V14.01,2013-03-31 16:33:00,
2013-03-31 18:34:00,92.5,90.5,29.76,ENE,68,0.0,0.0,94,0.00,,---,0.00,VWS V14.01,2013-03-31 16:34:00,
2013-03-31 18:36:00,92.8,90.9,29.76,East,90,0.0,0.0,94,0.00,,---,0.00,VWS V14.01,2013-03-31 16:36:00,
2013-03-31 18:40:00,95.4,93.4,29.76,ENE,68,0.0,0.0,94,0.00,,---,0.00,VWS V14.01,2013-03-31 16:40:00,
2013-03-31 18:42:00,95.7,93.7,29.76,ENE,68,0.0,0.0,94,0.00,,---,0.00,VWS V14.01,2013-03-31 16:42:00,
2013-03-31 18:43:00,95.9,93.9,29.76,ESE,112,0.0,0.0,94,0.00,,---,0.00,VWS V14.01,2013-03-31 16:43:00,
2013-03-31 18:47:00,98.6,96.2,29.76,ENE,68,0.0,0.0,93,0.00,,---,0.00,VWS V14.01,2013-03-31 16:47:00,
2013-03-31 18:48:00,99.1,96.8,29.76,ESE,112,0.0,0.0,93,0.00,,---,0.00,VWS V14.01,2013-03-31 16:48:00,
2013-03-31 18:51:00,102.2,99.4,29.76,East,90,0.0,0.0,92,0.00,,---,0.00,VWS V14.01,2013-03-31 16:51:00,
2013-03-31 18:54:00,103.5,99.9,29.76,East,90,0.0,0.0,92,0.00,,---,0.00,VWS V14.01,2013-03-31 16:54:00,
2013-03-31 18:57:00,104.2,99.9,29.76,ESE,112,0.0,0.0,92,0.00,,---,0.00,VWS V14.01,2013-03-31 16:57:00,
2013-03-31 19:00:00,104.4,99.9,29.76,NNE,22,0.0,0.0,92,0.00,,---,0.00,VWS V14.01,2013-03-31 17:00:00,
2013-03-31 19:02:00,105.1,99.9,29.76,ENE,68,0.0,0.0,92,0.00,,---,0.00,VWS V14.01,2013-03-31 17:02:00,
2013-03-31 19:05:00,105.6,99.9,29.76,NNE,22,0.0,0.0,92,0.00,,---,0.00,VWS V14.01,2013-03-31 17:05:00,
2013-03-31 19:06:00,105.8,99.9,29.76,East,90,0.0,0.0,91,0.00,,---,0.00,VWS V14.01,2013-03-31 17:06:00,
2013-03-31 19:09:00,106.3,99.9,29.76,ESE,112,0.0,0.0,91,0.00,,---,0.00,VWS V14.01,2013-03-31 17:09:00,
2013-03-31 19:10:00,106.7,99.9,29.76,East,90,0.0,0.0,91,0.00,,---,0.00,VWS V14.01,2013-03-31 17:10:00,
2013-03-31 19:12:00,106.7,99.9,29.76,ENE,68,0.0,0.0,91,0.00,,---,0.00,VWS V14.01,2013-03-31 17:12:00,
2013-03-31 19:14:00,107.4,99.9,29.76,ESE,112,0.0,0.0,91,0.00,,---,0.00,VWS V14.01,2013-03-31 17:14:00,
2013-03-31 19:15:00,107.8,99.9,29.76,ENE,68,0.0,0.0,91,0.00,,---,0.00,VWS V14.01,2013-03-31 17:15:00,
2013-03-31 19:19:00,108.3,99.9,29.76,ESE,112,0.0,0.0,91,0.00,,---,0.00,VWS V14.01,2013-03-31 17:19:00,
2013-03-31 19:21:00,108.5,99.9,29.76,ESE,112,0.0,0.0,91,0.00,,---,0.00,VWS V14.01,2013-03-31 17:21:00,
2013-03-31 19:22:00,108.9,99.9,29.76,ESE,112,0.0,0.0,91,0.00,,---,0.00,VWS V14.01,2013-03-31 17:22:00,
2013-03-31 19:23:00,108.9,99.9,29.76,East,90,0.0,0.0,91,0.00,,---,0.00,VWS V14.01,2013-03-31 17:23:00,
2013-03-31 19:25:00,109.0,99.9,29.76,ESE,112,0.0,0.0,91,0.00,,---,0.00,VWS V14.01,2013-03-31 17:25:00,
2013-03-31 19:27:00,109.0,99.9,29.76,ENE,68,0.0,0.0,91,0.00,,---,0.00,VWS V14.01,2013-03-31 17:27:00,
2013-03-31 19:28:00,109.2,99.9,29.76,ENE,68,0.0,0.0,91,0.00,,---,0.00,VWS V14.01,2013-03-31 17:28:00,
2013-03-31 19:32:00,109.9,99.9,29.76,ENE,68,0.0,0.0,90,0.00,,---,0.00,VWS V14.01,2013-03-31 17:32:00,
2013-03-31 19:33:00,110.3,99.9,29.76,East,90,0.0,0.0,90,0.00,,---,0.00,VWS V14.01,2013-03-31 17:33:00,
2013-03-31 19:36:00,110.8,99.9,29.76,East,90,0.0,0.0,90,0.00,,---,0.00,VWS V14.01,2013-03-31 17:36:00,
2013-03-31 19:39:00,111.4,99.9,29.76,East,90,0.0,0.0,90,0.00,,---,0.00,VWS V14.01,2013-03-31 17:39:00,
2013-03-31 19:41:00,111.4,99.9,29.76,ENE,68,0.0,0.0,90,0.00,,---,0.00,VWS V14.01,2013-03-31 17:41:00,
2013-03-31 19:43:00,112.5,99.9,29.76,ENE,68,0.0,0.0,90,0.00,,---,0.00,VWS V14.01,2013-03-31 17:43:00,
2013-03-31 19:46:00,113.0,99.9,29.76,East,90,0.0,0.0,90,0.00,,---,0.00,VWS V14.01,2013-03-31 17:46:00,
2013-03-31 19:49:00,113.2,99.9,29.76,NNW,338,0.0,0.0,90,0.00,,---,0.00,VWS V14.01,2013-03-31 17:49:00,
2013-03-31 19:52:00,113.5,99.9,29.76,NNE,22,0.0,0.0,90,0.00,,---,0.00,VWS V14.01,2013-03-31 17:52:00,
2013-03-31 19:54:00,113.7,99.9,29.76,ENE,68,0.0,0.0,90,0.00,,---,0.00,VWS V14.01,2013-03-31 17:54:00,
2013-03-31 19:56:00,114.1,99.9,29.76,ENE,68,0.0,0.0,90,0.00,,---,0.00,VWS V14.01,2013-03-31 17:56:00,
2013-03-31 20:00:00,114.4,99.9,29.76,ENE,68,0.0,0.0,90,0.00,,---,0.00,VWS V14.01,2013-03-31 18:00:00,
2013-03-31 20:02:00,115.0,99.9,29.76,ENE,68,0.0,0.0,89,0.00,,---,0.00,VWS V14.01,2013-03-31 18:02:00,
2013-03-31 20:05:00,115.3,99.9,29.76,ENE,68,0.0,0.0,89,0.00,,---,0.00,VWS V14.01,2013-03-31 18:05:00,
2013-03-31 20:09:00,115.5,99.9,29.76,East,90,0.0,0.0,89,0.00,,---,0.00,VWS V14.01,2013-03-31 18:09:00,
2013-03-31 20:11:00,115.5,99.9,29.76,NE,45,0.0,0.0,89,0.00,,---,0.00,VWS V14.01,2013-03-31 18:11:00,
2013-03-31 20:15:00,114.1,99.9,29.76,East,90,0.0,0.0,90,0.00,,---,0.00,VWS V14.01,2013-03-31 18:15:00,
2013-03-31 20:17:00,114.1,99.9,29.76,East,90,0.0,0.0,90,0.00,,---,0.00,VWS V14.01,2013-03-31 18:17:00,
2013-03-31 20:19:00,114.3,99.9,29.76,ENE,68,0.0,0.0,90,0.00,,---,0.00,VWS V14.01,2013-03-31 18:19:00,
2013-03-31 20:21:00,114.3,99.9,29.76,ENE,68,0.0,0.0,90,0.00,,---,0.00,VWS V14.01,2013-03-31 18:21:00,
2013-03-31 20:24:00,114.4,99.9,29.76,ENE,68,0.0,0.0,90,0.00,,---,0.00,VWS V14.01,2013-03-31 18:24:00,
2013-03-31 20:29:00,115.2,99.9,29.76,ENE,68,0.0,0.0,89,0.00,,---,0.00,VWS V14.01,2013-03-31 18:29:00,
2013-03-31 20:33:00,116.6,99.9,29.76,ENE,68,0.0,0.0,89,0.00,,---,0.00,VWS V14.01,2013-03-31 18:33:00,
2013-03-31 20:34:00,117.0,99.9,29.76,NNE,22,0.0,0.0,89,0.00,,---,0.00,VWS V14.01,2013-03-31 18:34:00,
2013-03-31 20:35:00,117.3,99.9,29.76,ENE,68,0.0,0.0,89,0.00,,---,0.00,VWS V14.01,2013-03-31 18:35:00,
2013-03-31 20:38:00,117.7,99.9,29.76,ENE,68,0.0,0.0,89,0.00,,---,0.00,VWS V14.01,2013-03-31 18:38:00,
2013-03-31 20:39:00,118.0,99.9,29.76,ENE,68,0.0,0.0,89,0.00,,---,0.00,VWS V14.01,2013-03-31 18:39:00,
2013-03-31 20:41:00,118.6,99.9,29.76,WSW,248,0.0,0.0,88,0.00,,---,0.00,VWS V14.01,2013-03-31 18:41:00,
2013-03-31 20:42:00,118.8,99.9,29.76,ENE,68,0.0,0.0,88,0.00,,---,0.00,VWS V14.01,2013-03-31 18:42:00,
2013-03-31 20:43:00,118.8,99.9,29.76,ENE,68,0.0,0.0,88,0.00,,---,0.00,VWS V14.01,2013-03-31 18:43:00,
2013-03-31 20:44:00,119.1,99.9,29.76,ENE,68,0.0,0.0,88,0.00,,---,0.00,VWS V14.01,2013-03-31 18:44:00,
2013-03-31 20:48:00,121.1,99.9,29.76,NE,45,0.0,0.0,88,0.00,,---,0.00,VWS V14.01,2013-03-31 18:48:00,
2013-03-31 20:50:00,121.3,99.9,29.76,East,90,0.0,0.0,88,0.00,,---,0.00,VWS V14.01,2013-03-31 18:50:00,
2013-03-31 20:51:00,121.5,99.9,29.76,ESE,112,0.0,0.0,88,0.00,,---,0.00,VWS V14.01,2013-03-31 18:51:00,
2013-03-31 20:55:00,123.4,99.9,29.76,NE,45,0.0,0.0,88,0.00,,---,0.00,VWS V14.01,2013-03-31 18:55:00,
2013-03-31 21:00:00,122.4,99.9,29.76,ESE,112,0.0,0.0,88,0.00,,---,0.00,VWS V14.01,2013-03-31 19:00:00,
2013-03-31 21:02:00,122.4,99.9,29.76,ESE,112,0.0,0.0,88,0.00,,---,0.00,VWS V14.01,2013-03-31 19:02:00,
2013-03-31 21:05:00,121.8,99.9,29.76,ENE,68,0.0,0.0,88,0.00,,---,0.00,VWS V14.01,2013-03-31 19:05:00,
2013-03-31 21:09:00,121.5,99.9,29.76,NNW,338,0.0,0.0,88,0.00,,---,0.00,VWS V14.01,2013-03-31 19:09:00,
2013-03-31 21:10:00,121.5,99.9,29.76,ENE,68,0.0,0.0,88,0.00,,---,0.00,VWS V14.01,2013-03-31 19:10:00,
2013-03-31 21:11:00,121.5,99.9,29.74,ENE,68,0.0,0.0,88,0.00,,---,0.00,VWS V14.01,2013-03-31 19:11:00,
2013-03-31 21:14:00,121.6,99.9,29.74,ENE,68,0.0,0.0,88,0.00,,---,0.00,VWS V14.01,2013-03-31 19:14:00,
2013-03-31 21:17:00,122.2,99.9,29.74,East,90,0.0,0.0,88,0.00,,---,0.00,VWS V14.01,2013-03-31 19:17:00,
2013-03-31 21:20:00,122.4,99.9,29.74,ENE,68,0.0,0.0,88,0.00,,---,0.00,VWS V14.01,2013-03-31 19:20:00,
2013-03-31 21:22:00,122.4,99.9,29.74,ENE,68,0.0,0.0,88,0.00,,---,0.00,VWS V14.01,2013-03-31 19:22:00,
2013-03-31 21:24:00,122.9,99.9,29.74,ENE,68,0.0,0.0,88,0.00,,---,0.00,VWS V14.01,2013-03-31 19:24:00,
2013-03-31 21:27:00,122.7,99.9,29.74,ENE,68,0.0,0.0,88,0.00,,---,0.00,VWS V14.01,2013-03-31 19:27:00,
2013-03-31 21:29:00,122.7,99.9,29.74,East,90,0.0,0.0,88,0.00,,---,0.00,VWS V14.01,2013-03-31 19:29:00,
2013-03-31 21:31:00,122.9,99.9,29.74,NNE,22,0.0,0.0,88,0.00,,---,0.00,VWS V14.01,2013-03-31 19:31:00,
2013-03-31 21:32:00,123.3,99.9,29.74,ENE,68,0.0,0.0,88,0.00,,---,0.00,VWS V14.01,2013-03-31 19:32:00,
2013-03-31 21:33:00,123.3,99.9,29.74,ENE,68,0.0,0.0,88,0.00,,---,0.00,VWS V14.01,2013-03-31 19:33:00,
2013-03-31 21:35:00,123.3,99.9,29.74,ENE,68,0.0,0.0,88,0.00,,---,0.00,VWS V14.01,2013-03-31 19:35:00,
2013-03-31 21:38:00,123.6,99.9,29.74,ENE,68,0.0,0.0,88,0.00,,---,0.00,VWS V14.01,2013-03-31 19:38:00,
2013-03-31 21:40:00,123.6,99.9,29.74,ENE,68,0.0,0.0,88,0.00,,---,0.00,VWS V14.01,2013-03-31 19:40:00,
2013-03-31 21:43:00,124.2,99.9,29.74,East,90,0.0,2.9,87,0.00,,---,0.00,VWS V14.01,2013-03-31 19:43:00,
2013-03-31 21:45:00,124.5,99.9,29.74,East,90,0.0,0.0,87,0.00,,---,0.00,VWS V14.01,2013-03-31 19:45:00,
2013-03-31 21:47:00,125.2,99.9,29.74,ENE,68,0.0,0.9,87,0.00,,---,0.00,VWS V14.01,2013-03-31 19:47:00,
2013-03-31 21:51:00,125.8,99.9,29.74,ESE,112,0.0,0.0,87,0.00,,---,0.00,VWS V14.01,2013-03-31 19:51:00,
2013-03-31 21:52:00,126.5,99.9,29.74,ENE,68,0.0,5.4,87,0.00,,---,0.00,VWS V14.01,2013-03-31 19:52:00,
2013-03-31 21:54:00,127.0,99.9,29.74,ESE,112,0.0,1.6,87,0.00,,---,0.00,VWS V14.01,2013-03-31 19:54:00,
2013-03-31 21:57:00,127.4,99.9,29.74,ENE,68,0.0,0.0,86,0.00,,---,0.00,VWS V14.01,2013-03-31 19:57:00,
2013-03-31 21:58:00,127.8,99.9,29.74,ENE,68,0.0,0.0,86,0.00,,---,0.00,VWS V14.01,2013-03-31 19:58:00,
2013-03-31 22:00:00,128.1,99.9,29.74,East,90,0.0,0.0,86,0.00,,---,0.00,VWS V14.01,2013-03-31 20:00:00,
2013-03-31 22:04:00,128.8,99.9,29.74,ENE,68,0.0,0.0,86,0.00,,---,0.00,VWS V14.01,2013-03-31 20:04:00,
2013-03-31 22:05:00,129.0,99.9,29.74,ENE,68,0.0,0.0,86,0.00,,---,0.00,VWS V14.01,2013-03-31 20:05:00,
2013-03-31 22:09:00,129.2,99.9,29.74,ESE,112,0.0,0.0,86,0.00,,---,0.00,VWS V14.01,2013-03-31 20:09:00,
2013-03-31 22:10:00,129.2,99.9,29.74,ESE,112,0.0,0.0,86,0.00,,---,0.00,VWS V14.01,2013-03-31 20:10:00,
2013-03-31 22:12:00,129.6,99.9,29.74,ENE,68,0.0,0.0,86,0.00,,---,0.00,VWS V14.01,2013-03-31 20:12:00,
2013-03-31 22:15:00,129.9,99.9,29.74,ENE,68,0.0,0.0,86,0.00,,---,0.00,VWS V14.01,2013-03-31 20:15:00,
2013-03-31 22:17:00,130.3,99.9,29.74,East,90,0.0,0.0,86,0.00,,---,0.00,VWS V14.01,2013-03-31 20:17:00,
2013-03-31 22:20:00,130.8,99.9,29.74,SSE,158,0.0,0.0,86,0.00,,---,0.00,VWS V14.01,2013-03-31 20:20:00,
2013-03-31 22:22:00,130.8,99.9,29.74,East,90,0.0,0.0,86,0.00,,---,0.00,VWS V14.01,2013-03-31 20:22:00,
2013-03-31 22:25:00,132.3,99.9,29.74,NNE,22,0.0,0.0,86,0.00,,---,0.00,VWS V14.01,2013-03-31 20:25:00,
2013-03-31 22:28:00,132.6,99.9,29.74,ESE,112,0.0,0.0,86,0.00,,---,0.00,VWS V14.01,2013-03-31 20:28:00,
2013-03-31 22:32:00,133.7,99.9,29.74,East,90,6.9,6.9,85,0.00,,---,0.00,VWS V14.01,2013-03-31 20:32:00,
2013-03-31 22:33:00,133.9,99.9,29.74,ENE,68,0.0,6.9,85,0.00,,---,0.00,VWS V14.01,2013-03-31 20:33:00,
2013-03-31 22:37:00,134.8,99.9,29.74,NNE,22,0.0,9.6,85,0.00,,---,0.00,VWS V14.01,2013-03-31 20:37:00,
2013-03-31 22:39:00,135.0,99.9,29.74,SSE,158,0.0,0.0,85,0.00,,---,0.00,VWS V14.01,2013-03-31 20:39:00,
2013-03-31 22:40:00,135.3,99.9,29.74,ENE,68,0.0,8.5,85,0.00,,---,0.00,VWS V14.01,2013-03-31 20:40:00,
2013-03-31 22:42:00,135.5,99.9,29.74,ENE,68,0.0,0.0,85,0.00,,---,0.00,VWS V14.01,2013-03-31 20:42:00,
2013-03-31 22:46:00,135.5,99.9,29.74,ESE,112,0.0,0.0,85,0.00,,---,0.00,VWS V14.01,2013-03-31 20:46:00,
2013-03-31 22:47:00,135.3,99.9,29.74,East,90,0.0,0.0,85,0.00,,---,0.00,VWS V14.01,2013-03-31 20:47:00,
2013-03-31 22:48:00,135.3,99.9,29.74,East,90,0.0,6.5,85,0.00,,---,0.00,VWS V14.01,2013-03-31 20:48:00,
2013-03-31 22:49:00,135.3,99.9,29.74,East,90,0.0,10.7,85,0.00,,---,0.00,VWS V14.01,2013-03-31 20:49:00,
2013-03-31 22:51:00,135.5,99.9,29.74,ENE,68,0.0,3.8,85,0.00,,---,0.00,VWS V14.01,2013-03-31 20:51:00,
2013-03-31 22:52:00,135.7,99.9,29.74,East,90,0.0,0.0,85,0.00,,---,0.00,VWS V14.01,2013-03-31 20:52:00,
2013-03-31 22:54:00,135.9,99.9,29.74,ENE,68,0.0,0.0,85,0.00,,---,0.00,VWS V14.01,2013-03-31 20:54:00,
2013-03-31 22:57:00,135.7,99.9,29.74,NE,45,0.0,0.0,85,0.00,,---,0.00,VWS V14.01,2013-03-31 20:57:00,
2013-03-31 22:58:00,135.7,99.9,29.74,NNE,22,0.0,0.0,85,0.00,,---,0.00,VWS V14.01,2013-03-31 20:58:00,
2013-03-31 23:01:00,135.0,99.9,29.74,NNW,338,0.0,0.0,85,0.00,,---,0.00,VWS V14.01,2013-03-31 21:01:00,
2013-03-31 23:04:00,133.9,99.9,29.74,NE,45,0.0,10.3,85,0.00,,---,0.00,VWS V14.01,2013-03-31 21:04:00,
2013-03-31 23:05:00,133.7,99.9,29.74,ENE,68,0.0,0.0,85,0.00,,---,0.00,VWS V14.01,2013-03-31 21:05:00,
2013-03-31 23:10:00,131.9,99.9,29.74,ENE,68,0.0,0.0,86,0.00,,---,0.00,VWS V14.01,2013-03-31 21:10:00,
2013-03-31 23:11:00,131.5,99.9,29.71,NE,45,0.0,0.0,86,0.00,,---,0.00,VWS V14.01,2013-03-31 21:11:00,
2013-03-31 23:15:00,131.0,99.9,29.71,ENE,68,0.0,0.0,86,0.00,,---,0.00,VWS V14.01,2013-03-31 21:15:00,
2013-03-31 23:16:00,131.2,99.9,29.71,ENE,68,0.0,0.0,86,0.00,,---,0.00,VWS V14.01,2013-03-31 21:16:00,
2013-03-31 23:17:00,131.2,99.9,29.71,ENE,68,0.0,0.0,86,0.00,,---,0.00,VWS V14.01,2013-03-31 21:17:00,
2013-03-31 23:21:00,131.9,99.9,29.71,ENE,68,0.0,1.1,86,0.00,,---,0.00,VWS V14.01,2013-03-31 21:21:00,
2013-03-31 23:22:00,132.3,99.9,29.71,ESE,112,0.0,0.0,86,0.00,,---,0.00,VWS V14.01,2013-03-31 21:22:00,
2013-03-31 23:23:00,132.6,99.9,29.71,ENE,68,0.0,0.0,86,0.00,,---,0.00,VWS V14.01,2013-03-31 21:23:00,
2013-03-31 23:24:00,133.2,99.9,29.71,ENE,68,0.0,6.0,85,0.00,,---,0.00,VWS V14.01,2013-03-31 21:24:00,
2013-03-31 23:28:00,134.4,99.9,29.71,ENE,68,0.0,2.5,85,0.00,,---,0.00,VWS V14.01,2013-03-31 21:28:00,
2013-03-31 23:32:00,134.4,99.9,29.71,ENE,68,0.0,9.4,85,0.00,,---,0.00,VWS V14.01,2013-03-31 21:32:00,
2013-03-31 23:33:00,133.9,99.9,29.71,East,90,0.0,0.0,85,0.00,,---,0.00,VWS V14.01,2013-03-31 21:33:00,
2013-03-31 23:37:00,132.3,99.9,29.71,ENE,68,0.0,0.9,86,0.00,,---,0.00,VWS V14.01,2013-03-31 21:37:00,
2013-03-31 23:38:00,131.9,99.9,29.71,ENE,68,0.0,0.0,86,0.00,,---,0.00,VWS V14.01,2013-03-31 21:38:00,
2013-03-31 23:41:00,129.4,99.9,29.71,ENE,68,0.0,0.0,86,0.00,,---,0.00,VWS V14.01,2013-03-31 21:41:00,
2013-03-31 23:43:00,127.9,99.9,29.71,NE,45,0.0,0.0,86,0.00,,---,0.00,VWS V14.01,2013-03-31 21:43:00,
2013-03-31 23:44:00,127.2,99.9,29.71,ENE,68,0.0,0.9,87,0.00,,---,0.00,VWS V14.01,2013-03-31 21:44:00,
2013-03-31 23:45:00,126.7,99.9,29.71,NNE,22,0.0,0.0,87,0.00,,---,0.00,VWS V14.01,2013-03-31 21:45:00,
2013-03-31 23:46:00,126.0,99.9,29.71,ENE,68,0.0,0.0,87,0.00,,---,0.00,VWS V14.01,2013-03-31 21:46:00,
2013-03-31 23:50:00,122.7,99.9,29.71,ENE,68,7.4,7.4,88,0.00,,---,0.00,VWS V14.01,2013-03-31 21:50:00,
2013-03-31 23:53:00,120.2,99.9,29.71,ENE,68,7.6,7.6,88,0.00,,---,0.00,VWS V14.01,2013-03-31 21:53:00,
2013-03-31 23:57:00,116.4,99.9,29.71,ENE,68,0.0,0.0,89,0.00,,---,0.00,VWS V14.01,2013-03-31 21:57:00,